GFSFLT2_prec_cloud_003.txt.gz
Cloud_Cover
0 0 0 0 0 0 0 0 0 0 0 0 0 0 0 0 76 100 100 100 100 100 100 100 100 100 100 100 100 100 100 48
0 0 3 6 19 0 0 0 0 0 0 0 0 0 0 0 0 100 100 100 100 100 100 100 100 100 100 100 100 100 29 78
0 0 1 0 0 0 0 0 0 1 2 0 7 87 70 0 1 52 100 100 100 100 100 100 100 100 100 100 100 100 52 8
0 0 0 0 0 0 23 76 7 0 6 12 1 38 89 84 23 5 95 100 100 100 100 100 100 100 100 100 100 76 36 19
1 2 0 4 9 54 91 2 31 12 0 0 9 6 12 31 49 12 13 70 100 100 100 100 100 100 100 100 100 100 52 11
3 0 0 0 7 46 62 33 0 0 0 0 3 2 12 27 79 90 100 100 100 100 100 100 100 100 100 100 100 100 100 96
0 0 0 0 0 0 0 0 0 0 0 0 0 0 4 9 5 45 100 100 100 100 100 100 100 100 100 100 100 100 100 86
0 0 0 0 0 0 0 0 0 0 0 0 0 0 0 5 57 100 100 100 100 100 100 100 100 100 100 100 100 100 100 100
0 0 0 0 0 0 0 0 0 2 5 3 0 0 0 5 48 26 98 100 100 100 92 100 100 100 100 100 100 100 100 100
0 2 0 0 0 0 0 0 0 0 0 0 0 0 0 4 66 100 52 100 100 100 100 100 100 100 100 100 100 100 100 100
3 3 0 4 5 5 0 5 5 5 2 0 0 0 0 0 42 100 79 48 100 100 100 100 100 100 100 100 100 100 100 100
8 23 68 9 5 4 15 5 2 5 5 12 3 0 0 0 5 99 100 92 40 98 100 100 100 100 100 100 100 100 100 100
65 97 88 98 34 84 88 94 58 18 9 7 5 3 0 0 0 2 97 100 100 49 98 100 100 100 100 100 100 100 100 100
80 40 33 7 14 99 100 100 100 100 96 53 52 21 3 4 0 0 2 94 100 100 91 100 100 100 100 100 100 100 100 100
7 40 25 95 97 93 88 100 100 100 100 100 94 91 74 6 5 5 5 5 86 100 100 47 100 100 100 100 100 100 100 100
5 5 11 15 60 68 34 37 100 100 100 100 100 99 100 81 100 95 77 13 7 46 99 35 15 43 100 100 100 100 100 100
65 56 88 32 59 95 97 100 100 100 100 100 100 100 100 100 100 100 94 100 99 84 85 98 88 67 90 100 100 100 100 100
99 100 100 71 88 82 100 100 100 100 100 100 100 100 100 100 100 100 100 100 100 76 89 93 87 100 95 77 72 97 100 100
100 100 100 100 100 100 100 100 100 100 100 100 100 100 100 100 100 100 100 100 92 100 86 30 83 100 100 100 94 27 74 89
100 100 100 54 100 100 97 100 99 100 100 100 100 100 100 100 100 100 100 100 100 87 68 75 16 100 100 100 99 100 100 33

GFSFLT2_prec_cloud_006.txt.gz
Cloud_Cover
8 0 0 0 0 0 0 0 0 0 0 0 0 0 0 0 0 3 82 100 100 100 100 100 100 100 100 100 100 100 100 100
1 32 32 1 0 0 0 0 0 0 0 0 0 0 5 0 0 0 11 100 100 100 100 100 100 100 100 100 100 100 7 31
0 0 0 1 1 0 0 0 0 0 0 0 0 4 4 91 58 10 2 100 100 100 100 100 100 100 100 100 100 100 87 94
0 0 0 0 2 0 57 34 2 50 74 0 22 59 89 86 48 8 0 91 100 100 100 100 100 100 100 100 100 100 92 100
4 0 0 0 22 15 98 32 16 35 10 43 12 0 0 0 100 50 84 20 68 100 100 100 100 100 91 100 100 100 100 100
0 0 0 0 0 3 11 0 0 0 0 0 0 0 0 0 24 5 0 0 69 95 100 100 100 100 100 100 100 100 100 100
0 0 0 0 0 0 0 0 0 0 0 0 0 0 0 0 0 0 0 9 13 3 10 100 100 100 100 100 100 100 100 100
0 0 0 0 0 0 0 0 0 0 0 2 0 0 0 2 0 0 0 0 1 17 34 83 100 100 100 100 100 100 100 100
0 5 0 1 0 0 0 0 2 5 4 4 5 5 1 0 0 0 0 0 0 1 5 5 100 100 100 100 100 100 100 100
5 5 2 1 3 1 3 5 26 17 30 94 88 98 100 34 15 0 0 0 0 0 3 5 99 100 100 100 100 100 100 100
19 5 5 5 5 5 6 3 4 5 4 16 83 77 100 100 100 99 66 1 0 0 0 5 5 98 100 100 100 100 100 100
14 26 31 39 46 6 5 6 21 6 4 2 100 100 100 100 100 100 94 9 5 1 0 3 59 7 99 100 100 100 100 100
5 12 36 61 33 38 5 5 5 12 26 5 5 20 99 100 100 100 100 72 45 5 0 0 5 49 5 100 100 100 100 100
61 44 87 100 100 100 100 100 100 63 26 10 58 5 38 5 70 100 100 25 70 5 5 3 4 3 14 89 100 100 100 100
100 100 100 98 100 100 63 75 100 100 100 87 5 5 5 8 39 8 14 8 38 99 100 50 5 5 5 3 65 100 100 100
100 100 100 100 50 100 100 100 99 100 100 100 37 37 50 38 30 52 95 56 93 100 100 100 100 25 5 5 5 7 100 99
100 100 100 100 91 84 100 100 100 100 100 100 100 100 100 77 26 87 98 98 21 53 74 96 100 100 78 21 5 5 5 29
88 24 100 100 76 100 100 100 100 100 100 100 100 100 100 100 100 96 98 100 98 64 66 100 100 92 100 100 72 74 25 26
18 17 100 100 100 100 100 100 100 100 100 100 100 100 100 100 100 100 100 98 100 100 100 100 100 100 100 90 70 80 5 18
9 5 7 46 100 100 100 100 100 100 100 100 100 100 100 100 100 100 100 100 100 100 100 100 99 100 100 100 100 100 99 50

GFSFLT2_prec_cloud_012.txt.gz
Cloud_Cover
100 91 1 0 0 0 0 0 0 0 0 0 0 0 0 0 0 0 0 0 0 0 3 14 100 100 100 100 100 100 100 100
0 0 0 0 0 0 0 0 0 0 0 0 0 0 0 0 0 0 0 0 0 0 0 6 100 100 100 100 100 100 100 100
0 0 0 0 0 0 0 0 0 0 0 0 0 1 3 0 0 0 0 0 0 0 0 35 100 100 100 100 100 100 100 100
0 0 0 0 0 0 0 0 0 0 0 1 2 5 0 0 0 0 4 0 0 0 0 0 22 100 100 100 100 100 100 100
0 0 0 0 0 0 1 0 0 0 3 5 4 5 2 3 9 16 10 1 3 0 0 0 0 35 75 15 100 100 100 100
0 0 0 2 0 1 1 0 5 2 5 14 27 5 1 5 11 3 5 3 4 1 13 6 0 0 2 17 23 100 100 100
5 5 5 5 11 81 13 19 5 18 53 16 5 6 3 5 4 4 0 0 1 2 50 78 19 17 43 89 47 46 100 100
5 10 8 37 74 100 100 100 93 25 5 29 6 46 91 97 85 42 10 10 75 19 3 0 0 1 1 3 24 25 100 100
100 99 74 69 6 74 80 100 100 100 100 17 24 60 87 77 53 5 5 32 23 9 5 15 5 5 5 0 4 1 42 100
100 100 80 95 81 64 98 100 85 99 99 6 24 86 38 100 34 15 40 69 50 13 18 5 0 0 9 51 5 5 7 94
94 100 99 92 98 92 72 92 98 100 100 81 43 100 99 94 71 10 38 95 47 24 7 5 5 2 1 0 0 1 57 66
5 64 14 8 22 32 5 20 18 5 21 50 76 94 31 5 97 100 100 100 99 47 8 5 5 5 5 5 3 1 5 19
5 5 5 5 5 5 5 5 5 5 5 5 5 5 5 5 5 66 88 96 19 18 5 32 11 34 5 5 5 5 5 4
5 5 5 6 52 8 42 69 27 8 5 5 29 18 5 49 14 5 5 72 83 21 5 38 16 5 11 5 5 13 5 11
14 15 5 12 55 29 8 16 18 9 5 5 16 32 14 32 76 66 87 98 95 58 81 100 100 100 74 43 8 4 5 24
19 76 83 58 11 6 5 5 5 5 5 5 5 5 5 5 43 99 100 100 100 93 81 100 100 100 42 100 88 64 5 18
7 68 85 100 100 100 100 76 84 28 32 5 5 5 5 5 10 79 89 86 90 100 100 100 100 74 39 70 86 80 68 5
83 100 100 100 100 100 100 100 100 81 10 5 5 5 22 65 99 100 99 74 76 100 100 100 100 100 89 74 13 93 84 21
97 100 100 100 84 90 89 45 18 6 5 5 8 76 91 100 100 100 100 100 100 100 99 76 100 100 100 46 66 75 53 7
82 100 74 81 98 100 84 6 5 5 5 9 5 15 93 75 100 100 100 100 100 100 98 100 100 100 100 100 100 78 100 100

GFSFLT2_prec_cloud_015.txt.gz
Cloud_Cover
100 100 100 72 0 0 0 0 0 0 0 0 0 0 0 0 0 0 4 12 10 0 0 0 0 0 0 13 100 100 100 100
40 0 0 0 0 0 0 0 0 0 0 0 0 0 0 0 0 0 1 0 1 2 0 12 0 0 0 0 3 59 100 100
0 0 0 0 0 0 0 0 0 0 0 0 0 0 0 0 0 0 0 0 0 0 0 0 0 0 0 0 0 20 100 100
0 0 0 0 0 0 0 0 0 0 0 16 6 0 0 0 0 0 0 0 0 0 0 0 0 0 0 0 0 46 96 100
0 0 1 4 0 3 4 4 12 2 0 5 8 13 7 9 18 19 0 2 2 4 5 7 4 3 1 2 0 79 100 100
24 5 9 58 89 100 100 100 100 82 89 47 94 53 30 68 94 72 35 35 4 1 15 7 0 0 5 5 20 96 100 100
100 84 40 87 100 100 100 100 100 90 54 40 5 57 64 66 88 100 100 100 100 100 93 49 29 1 2 4 14 20 45 100
5 45 69 100 38 39 27 39 13 5 5 23 38 14 16 39 68 100 98 88 83 66 74 92 100 100 76 2 4 17 5 16
5 5 5 7 10 8 5 5 6 5 5 5 5 5 5 5 5 5 7 12 34 17 60 33 5 8 37 33 79 3 6 5
5 2 3 5 5 5 5 5 5 5 5 5 5 5 5 5 5 5 5 5 5 5 5 5 5 5 5 1 4 14 12 3
5 5 5 5 5 4 3 5 5 5 5 5 5 5 5 5 5 5 5 5 13 21 24 14 2 1 2 3 1 2 4 4
0 0 0 0 1 5 5 5 5 55 81 72 15 5 7 5 5 5 5 17 49 85 62 8 3 5 2 0 1 3 0 0
0 0 5 5 5 5 5 5 72 71 30 78 37 26 5 5 5 5 5 5 5 5 5 4 5 5 3 5 5 5 5 5
0 0 2 5 5 5 4 5 5 5 4 8 46 58 58 50 14 5 5 5 5 5 5 5 5 5 4 1 4 2 5 17
3 5 3 4 5 5 20 5 0 0 4 2 3 2 5 5 5 5 5 6 5 5 5 51 82 91 87 71 33 27 9 38
61 95 100 100 100 100 100 100 100 100 100 100 92 53 76 61 5 41 91 90 83 69 7 5 18 63 87 100 100 100 100 76
100 98 100 100 100 100 98 99 100 100 99 92 16 18 5 5 6 80 95 100 100 96 82 45 80 96 92 100 100 100 100 77
82 25 23 6 28 40 45 5 24 7 5 5 16 8 4 2 5 5 67 100 90 100 88 100 98 100 89 100 100 99 65 97
5 5 5 5 5 6 44 26 10 12 0 4 4 0 0 0 2 5 39 100 100 75 91 100 100 100 100 100 100 100 100 100
5 5 16 16 12 12 20 14 13 5 5 0 0 0 0 0 0 3 84 100 98 100 100 100 100 100 100 100 92 100 100 100

GFSFLT2_prec_cloud_018.txt.gz
Cloud_Cover
0 2 1 0 0 0 0 0 0 0 0 0 0 0 0 0 4 28 34 28 27 12 1 7 47 18 0 0 0 0 0 1
0 0 0 0 0 0 0 0 0 0 0 0 0 0 0 0 0 2 0 0 5 4 12 0 0 0 0 0 0 0 0 0
0 0 0 0 0 0 0 0 0 0 0 0 2 3 1 0 0 0 0 0 0 0 0 2 0 0 0 0 0 0 0 0
0 0 0 0 0 5 4 5 6 8 6 5 5 5 5 5 5 4 2 0 0 0 0 1 5 5 4 4 0 0 0 0
0 1 1 5 0 0 5 5 5 4 4 22 19 20 7 6 13 17 24 52 48 4 2 6 0 0 4 5 5 7 22 11
5 5 36 20 6 5 5 7 6 10 5 35 39 34 40 16 25 17 72 100 85 16 90 97 54 17 10 5 6 12 33 28
5 5 4 4 5 3 1 1 4 0 1 5 5 7 6 10 19 14 16 30 41 11 15 34 42 96 100 100 87 13 5 5
9 4 0 2 2 0 1 4 5 5 5 5 5 5 5 5 14 6 37 24 8 29 8 69 98 68 94 77 87 79 7 50
0 5 0 0 2 2 3 5 5 5 5 5 16 46 32 5 7 5 5 5 5 5 5 5 5 10 83 100 93 34 38 5
0 0 0 0 5 5 5 0 0 2 5 5 49 17 5 5 5 5 5 5 5 5 5 5 5 5 4 4 5 7 18 67
0 0 0 0 0 4 0 1 1 1 0 0 0 0 0 3 5 5 6 5 5 5 5 5 5 3 4 5 5 5 5 5
0 2 5 5 5 5 5 2 5 5 4 5 5 4 0 4 4 0 3 5 5 5 7 5 5 5 5 5 5 3 1 2
0 3 5 5 5 11 12 5 5 5 2 0 0 0 4 2 0 0 0 1 3 1 0 0 0 0 0 3 0 0 3 3
2 5 58 63 62 72 5 5 5 14 63 45 16 2 3 4 5 5 6 5 5 5 5 5 4 1 0 0 0 4 7 10
5 5 26 82 21 68 83 99 65 6 5 30 98 31 8 2 26 35 46 30 18 5 5 5 5 5 42 40 21 19 68 42
5 6 80 91 87 10 5 5 5 5 5 5 5 4 0 0 0 0 0 4 5 18 91 95 90 5 5 99 100 97 98 100
89 100 81 5 5 36 44 5 5 4 0 0 0 0 0 0 0 0 0 4 4 49 99 100 100 100 68 81 74 100 100 99
17 7 5 36 57 38 66 5 5 0 2 0 0 0 0 0 0 0 0 0 0 5 50 100 100 100 92 100 86 97 58 100
86 88 89 100 100 100 100 93 5 5 5 5 5 2 0 0 0 0 0 0 0 0 5 91 87 100 100 100 100 100 100 100
94 96 100 100 93 77 53 5 16 55 69 26 5 5 5 28 0 0 1 2 5 35 94 100 100 100 100 100 100 100 100 100

GFSFLT2_prec_cloud_021.txt.gz
Cloud_Cover
0 0 0 0 0 0 0 0 0 0 0 0 0 0 0 0 1 3 14 18 38 35 22 4 0 0 0 0 0 0 0 0
0 0 0 0 0 0 0 0 0 0 0 0 0 0 0 0 0 0 0 0 0 0 0 0 0 0 3 0 0 0 0 0
0 0 0 0 0 0 0 0 0 0 0 0 0 0 0 0 0 0 3 0 0 0 0 0 0 0 0 0 2 0 0 0
0 0 0 0 0 0 0 0 0 0 0 0 0 0 0 0 0 0 0 1 3 1 0 4 4 0 0 0 2 3 0 0
0 0 0 0 0 0 0 0 0 0 2 5 7 5 5 5 5 5 5 5 4 5 5 4 2 0 2 3 0 0 0 0
0 0 0 0 0 0 0 0 0 0 0 0 5 26 46 36 4 7 18 4 5 5 58 86 50 11 4 1 5 5 0 0
3 2 0 0 0 0 0 0 0 0 0 0 4 5 5 5 5 5 0 3 0 2 5 5 17 14 38 12 5 5 1 0
1 1 0 4 5 5 5 3 0 0 0 0 0 4 1 2 0 0 0 0 0 0 1 4 5 5 5 4 5 5 5 5
1 0 5 5 5 5 5 5 5 5 5 0 0 0 0 0 0 0 0 0 0 0 0 0 1 5 5 5 5 5 5 5
0 4 5 5 4 2 1 2 2 4 0 0 0 1 0 0 0 0 0 0 0 5 5 5 5 5 4 5 5 5 5 5
0 4 1 0 5 5 5 5 5 5 5 0 1 2 4 5 5 4 2 2 5 5 5 3 0 1 0 0 0 1 5 4
0 0 5 5 5 5 5 5 5 2 0 0 0 0 0 4 5 0 0 0 0 0 1 0 2 5 3 5 0 0 0 0
0 5 5 5 5 5 5 5 5 5 4 1 5 5 5 5 0 1 4 1 3 0 5 4 5 5 5 2 0 0 0 0
5 5 5 5 5 5 5 5 5 5 5 5 5 5 5 5 5 5 1 0 0 0 0 2 5 5 5 5 5 2 0 0
5 5 5 5 5 5 5 5 5 16 5 9 5 5 2 2 5 5 5 1 0 0 0 0 5 4 60 55 8 5 4 5
22 12 24 77 50 17 12 8 45 5 5 5 3 5 5 5 5 0 0 0 0 0 0 4 5 12 26 68 7 5 5 5
56 94 48 52 5 5 6 8 5 15 8 5 5 5 5 5 5 5 3 0 0 4 0 2 3 85 64 100 83 75 6 5
89 72 18 18 14 13 5 49 100 43 31 47 5 43 26 21 37 5 5 5 5 5 5 64 3 6 7 92 100 100 99 76
82 72 94 100 98 100 100 96 75 28 56 27 7 5 5 5 1 5 5 8 20 44 84 99 100 100 100 100 100 100 100 100
21 100 78 85 97 100 56 79 100 100 100 100 5 5 5 5 5 48 64 13 7 36 98 100 100 100 100 100 100 100 100 100

GFSFLT2_prec_cloud_027.txt.gz
Cloud_Cover
100 94 5 5 12 0 0 0 0 0 0 0 0 0 0 0 0 1 2 4 21 3 0 0 0 0 0 0 0 0 0 36
97 81 6 0 0 0 0 0 0 0 0 0 0 1 0 0 1 0 0 0 0 0 0 0 0 0 0 0 0 0 0 0
88 47 4 4 0 3 0 2 0 1 0 0 0 3 1 6 0 0 0 0 0 0 0 0 0 0 0 0 4 4 2 0
14 5 0 0 0 0 0 0 0 0 0 0 1 1 0 0 0 0 0 0 0 0 0 0 0 0 0 0 0 0 2 5
0 0 0 0 0 0 0 0 0 0 0 0 8 0 26 28 97 86 90 30 7 9 0 0 0 0 0 0 0 0 0 0
0 0 0 0 0 0 0 0 0 0 0 4 0 0 10 16 3 0 0 33 6 0 0 0 0 0 0 0 0 0 0 4
1 0 0 0 0 0 0 0 0 0 0 2 0 0 0 0 0 0 0 0 0 3 0 0 0 0 1 4 5 5 2 2
0 0 0 0 0 0 0 0 0 0 0 0 0 0 0 0 1 2 5 4 3 1 0 0 0 0 0 0 0 0 0 2
0 0 0 0 0 0 0 0 0 0 0 0 0 0 0 1 4 5 22 36 26 5 5 5 5 5 0 0 0 0 0 4
0 0 0 0 0 0 0 0 5 5 5 5 5 4 5 8 52 43 5 5 5 5 5 5 5 5 4 5 5 3 5 5
0 0 1 5 0 5 1 5 5 5 5 5 5 5 5 6 39 48 66 7 5 5 5 5 27 78 15 71 63 26 28 29
0 0 10 10 5 5 5 5 5 5 5 5 5 5 5 5 5 5 5 5 5 26 79 100 96 100 100 96 89 48 7 5
0 0 3 5 5 5 38 77 63 5 5 5 5 5 5 5 5 5 5 5 5 5 10 24 52 93 75 29 93 100 100 12
0 5 5 5 8 96 100 100 81 71 35 15 68 7 62 85 95 99 48 5 5 47 34 19 5 5 7 5 7 5 63 6
1 5 5 85 100 79 51 99 94 90 92 82 89 100 78 13 19 5 5 5 17 6 14 71 90 100 100 61 12 5 36 31
5 5 5 5 5 5 75 88 46 9 78 93 72 5 21 5 5 5 5 5 5 29 93 67 13 5 37 5 51 93 53 38
5 5 5 5 5 19 40 29 55 12 53 53 69 56 18 68 100 99 65 5 5 16 55 50 7 5 5 7 5 5 44 88
16 42 25 72 94 88 100 91 72 71 31 35 48 82 96 49 5 5 19 95 100 87 71 97 53 71 100 99 98 74 100 100
100 100 100 81 96 96 100 60 54 45 72 100 100 36 6 11 51 89 64 98 93 100 100 100 99 93 90 100 100 100 100 100
100 84 9 5 22 94 49 98 97 77 21 23 76 59 20 66 99 100 100 100 100 100 100 100 94 86 84 100 100 98 100 99

GFSFLT2_prec_cloud_030.txt.gz
Cloud_Cover
100 100 100 100 100 100 99 9 2 0 0 0 0 0 0 0 0 0 0 0 0 0 0 0 0 0 0 0 0 0 0 0
100 100 100 100 100 58 5 2 0 0 0 0 0 0 0 0 0 0 0 0 0 0 0 0 0 0 0 0 0 0 0 0
100 100 100 100 94 4 0 0 0 0 0 0 0 3 83 0 0 0 0 0 0 0 0 0 0 0 0 0 0 0 0 0
100 99 100 16 5 1 0 0 0 0 0 0 94 12 0 0 0 2 10 0 0 0 0 0 0 0 0 0 0 0 0 0
92 48 11 2 0 0 79 21 0 0 0 0 7 0 99 4 0 0 0 0 40 61 0 0 0 0 0 0 0 0 0 0
8 1 2 0 0 0 0 0 0 25 93 0 0 0 0 0 0 0 0 0 1 0 0 4 4 4 2 0 0 0 0 0
4 1 0 0 0 0 0 0 0 0 0 0 0 0 0 0 0 0 0 0 0 0 0 0 0 0 0 0 0 0 0 0
76 0 0 0 0 0 0 0 0 0 0 0 0 0 0 0 0 0 0 0 0 0 0 0 0 0 0 2 0 3 4 2
4 9 0 0 0 0 0 0 0 0 0 0 1 5 4 0 0 0 0 0 0 5 3 4 4 0 0 0 0 5 0 6
33 71 13 0 0 0 0 0 0 0 0 2 5 5 2 3 5 0 4 5 5 2 4 5 4 0 0 0 0 4 4 62
83 98 42 18 1 0 0 1 4 5 5 5 5 4 5 5 5 5 5 5 5 5 3 3 5 5 3 10 5 14 63 75
0 0 61 48 1 1 2 5 5 5 5 5 5 5 5 20 5 56 61 5 26 5 5 5 5 5 5 14 94 35 16 28
0 0 0 0 0 5 5 5 50 62 34 63 9 86 11 5 11 55 28 4 0 0 3 5 5 5 5 5 5 5 5 5
0 5 5 5 14 52 82 95 81 50 90 47 82 5 5 5 5 2 0 3 2 2 2 5 5 5 5 5 2 5 5 5
5 5 5 14 5 5 3 5 7 72 80 100 83 58 38 5 27 5 5 5 7 12 3 3 4 5 5 7 16 3 4 16
5 1 5 5 5 4 5 5 5 12 61 48 5 23 96 96 95 39 5 5 5 5 5 5 1 3 5 4 12 16 52 48
3 5 6 5 5 8 48 100 87 32 69 100 100 100 100 100 92 8 34 14 7 10 14 14 8 41 55 57 23 11 5 76
5 5 5 6 5 29 54 100 100 100 100 100 100 100 90 84 36 38 38 100 100 76 22 33 99 92 28 28 62 100 100 100
7 8 6 21 78 100 100 100 100 100 100 96 83 70 94 100 100 100 100 100 76 61 80 100 83 98 96 84 100 88 100 100
18 25 99 100 100 100 100 100 83 58 55 97 100 100 100 100 100 94 16 7 100 81 100 100 100 100 41 100 95 83 82 99

GFSFLT2_prec_cloud_033.txt.gz
Cloud_Cover
100 100 100 100 100 100 100 100 100 97 5 1 0 0 0 0 0 0 0 0 0 0 0 0 0 0 0 0 0 0 0 0
100 100 100 100 100 100 100 100 100 14 5 0 0 0 0 0 0 0 0 0 0 0 0 0 0 0 0 0 0 0 0 0
100 100 100 100 100 100 100 100 78 3 0 0 0 0 0 0 0 0 0 0 0 0 0 0 0 0 0 0 0 0 0 0
100 100 100 100 100 100 100 58 3 0 0 0 0 0 0 0 0 0 0 0 0 0 0 0 0 0 0 0 0 0 0 0
100 100 100 100 100 100 7 1 0 0 0 0 0 0 0 0 0 0 0 0 0 0 0 0 0 0 0 0 0 0 0 0
100 100 100 100 100 99 15 7 0 0 0 0 0 0 0 0 0 0 0 0 3 0 0 0 0 0 0 0 0 0 0 0
100 100 100 100 30 5 1 0 0 0 0 0 0 0 0 0 0 0 0 0 0 0 0 0 4 2 0 0 0 0 0 0
87 7 22 2 0 0 0 0 0 0 0 0 0 0 0 3 0 0 0 0 0 0 0 0 0 0 0 0 0 0 0 0
4 2 0 0 0 0 0 0 0 0 0 0 0 0 4 5 0 4 0 0 1 4 1 0 0 0 0 0 0 0 0 2
26 2 2 96 100 72 5 5 0 0 0 0 0 1 5 0 5 5 5 5 5 5 5 5 0 0 0 0 0 6 15 36
57 3 10 20 100 87 0 0 0 0 2 4 2 3 5 5 5 5 5 5 5 4 0 0 0 1 3 5 6 5 18 47
2 0 0 4 3 1 0 0 4 5 5 5 5 5 5 10 89 59 5 5 5 5 0 0 4 5 3 5 5 5 5 14
1 0 0 0 0 3 5 5 5 6 38 66 100 26 57 76 11 5 1 4 3 5 5 5 5 20 5 5 5 5 5 8
1 5 5 5 5 5 5 5 5 5 20 89 77 40 5 5 5 5 5 5 5 13 29 5 5 5 5 5 5 5 5 5
5 5 5 5 5 5 5 3 0 4 5 5 5 5 5 5 5 5 5 5 5 5 5 5 5 5 10 7 57 26 100 100
1 0 0 5 3 0 0 3 5 33 26 33 46 28 5 5 5 9 5 5 18 18 5 10 79 98 100 100 99 100 100 76
0 4 2 5 5 5 39 79 95 100 98 68 84 100 100 100 100 100 100 80 65 100 99 96 100 100 98 8 99 88 50 53
1 0 0 2 1 4 89 99 100 100 100 100 100 100 100 100 100 70 98 100 81 5 5 5 5 5 57 40 84 48 85 100
3 5 57 97 95 99 59 19 12 6 22 18 98 99 100 100 69 44 17 5 4 4 5 5 24 6 55 71 100 46 95 100
1 32 100 83 43 100 44 6 23 46 85 100 100 100 55 14 12 5 76 21 5 5 5 4 5 5 9 35 100 100 100 100

GFSFLT2_prec_cloud_036.txt.gz
Cloud_Cover
100 92 100 91 100 100 100 100 100 100 100 100 100 100 92 5 3 0 0 0 0 0 0 0 0 0 0 0 0 0 0 0
100 100 100 100 100 100 100 100 100 100 100 95 21 5 5 2 0 0 0 0 0 0 0 0 0 0 0 0 0 0 0 0
100 100 100 100 100 100 100 100 100 100 100 100 6 5 0 0 0 0 0 0 0 0 0 0 0 0 0 0 0 0 0 0
100 100 100 100 100 100 100 100 100 100 40 60 5 0 0 0 0 0 0 0 0 0 0 0 0 0 0 0 0 0 0 0
100 100 100 100 100 100 100 100 100 76 3 0 0 0 0 0 0 0 0 0 0 0 0 0 0 0 0 0 0 0 0 0
100 100 100 100 100 100 100 100 3 0 0 0 0 0 0 0 1 0 0 0 1 0 0 0 0 0 0 0 0 0 0 0
100 100 100 100 100 99 71 2 0 0 2 3 0 0 0 0 0 0 0 0 0 0 0 0 0 0 0 0 0 0 0 0
100 100 100 100 54 23 95 100 98 100 30 5 0 0 0 0 0 0 0 0 0 0 0 0 0 0 0 1 0 0 0 0
100 97 100 36 1 90 98 22 6 5 5 0 0 0 0 1 5 5 1 4 1 2 5 1 5 5 1 5 5 5 5 5
97 4 8 17 100 100 86 92 60 35 2 0 0 1 5 5 5 5 5 4 5 5 5 5 5 5 5 5 5 5 5 5
5 0 14 92 100 100 84 30 0 0 0 4 5 4 2 0 1 4 1 5 5 5 5 2 5 5 5 5 5 6 12 66
28 81 100 100 100 81 3 0 0 4 31 23 50 87 100 40 17 21 27 18 5 5 1 3 5 5 5 5 26 45 17 25
50 100 56 66 29 0 0 5 2 5 5 18 58 99 100 100 99 68 23 5 5 6 5 5 5 5 5 5 18 5 5 58
44 0 0 4 5 5 5 5 18 62 89 85 77 84 98 99 43 14 63 84 3 1 0 4 5 5 5 5 5 41 87 95
0 0 0 1 5 5 22 98 17 31 17 5 5 5 4 3 4 0 1 0 2 4 5 5 4 5 5 38 23 14 17 100
0 13 60 6 5 5 6 5 82 52 42 31 5 5 4 0 0 0 0 3 5 29 77 24 57 98 5 6 6 6 5 6
3 0 0 0 0 4 8 15 94 100 100 100 100 100 94 100 100 100 100 99 27 6 6 5 5 5 5 5 7 5 5 7
2 0 1 2 5 5 65 100 100 100 100 100 100 92 93 98 95 73 31 59 99 54 5 8 5 6 6 30 99 100 100 100
5 5 5 47 43 64 26 21 88 93 34 16 5 5 12 43 97 100 100 78 11 5 64 99 99 100 82 33 16 93 67 100
30 92 100 100 100 93 57 92 98 59 79 99 100 100 100 100 92 63 10 5 5 7 6 6 5 5 5 7 5 28 16 83

GFSFLT2_prec_cloud_039.txt.gz
Cloud_Cover
100 100 100 100 96 93 100 100 100 100 97 6 68 82 99 100 72 4 0 0 0 0 0 0 0 0 0 0 0 0 0 0
100 100 100 100 87 100 100 100 100 100 86 57 100 97 90 23 2 0 0 0 0 0 0 0 0 0 0 0 0 0 0 0
100 100 99 100 100 100 100 100 99 82 100 100 100 98 14 5 1 0 0 0 0 0 0 0 0 0 0 0 0 0 0 0
100 100 100 100 100 100 100 46 100 100 100 100 29 19 0 0 0 0 0 0 0 0 0 0 0 0 0 0 0 0 0 0
97 91 100 100 100 100 100 100 100 100 100 88 16 4 0 0 0 0 0 0 0 0 0 0 0 0 0 0 0 0 0 0
100 100 100 100 100 100 100 100 100 100 28 6 4 2 5 0 4 0 0 0 0 0 0 0 0 0 0 5 3 4 1 0
100 100 100 100 100 100 91 90 35 27 31 10 30 72 93 5 1 0 0 0 0 0 0 0 0 0 0 3 5 4 5 5
100 100 100 97 29 8 41 5 72 92 91 91 49 82 88 80 49 0 0 3 4 1 0 0 4 2 0 5 5 5 3 2
100 100 32 5 5 56 66 98 100 100 100 100 100 21 5 1 2 0 0 5 0 5 5 5 5 5 5 5 5 5 5 5
74 12 4 5 68 91 100 100 89 26 80 78 27 5 5 0 0 2 5 5 5 5 5 5 5 5 5 5 5 5 5 5
28 9 28 97 100 100 100 100 50 4 1 1 5 5 0 0 2 1 3 8 12 48 5 5 5 4 5 5 8 29 5 7
5 95 100 100 100 100 100 100 99 12 5 5 10 92 100 100 88 98 100 100 72 5 5 5 2 2 5 7 8 12 36 71
98 100 100 100 100 100 100 92 13 5 65 99 100 100 100 100 100 62 5 5 5 71 35 5 5 42 99 100 100 100 100 100
71 43 41 43 99 97 37 5 5 5 5 4 1 2 3 0 1 16 43 86 97 55 3 5 5 5 5 5 19 69 13 19
2 58 66 45 4 5 4 5 5 2 1 5 5 3 3 2 1 0 1 2 0 0 0 0 0 0 0 2 4 3 5 5
5 0 0 1 4 1 1 1 8 15 18 35 8 5 1 4 5 4 1 0 0 2 4 4 5 4 2 5 5 7 5 54
64 19 76 92 98 41 90 82 95 100 99 94 96 93 99 100 96 58 8 64 95 100 91 7 6 6 5 8 7 5 5 91
77 99 86 38 6 51 74 98 95 100 100 100 100 100 99 80 98 100 100 86 20 5 5 3 5 10 58 86 100 100 100 100
100 88 45 14 99 100 100 100 100 96 36 43 96 100 99 80 98 39 7 19 5 5 5 5 5 8 5 18 19 7 42 88
97 44 29 100 100 100 100 100 99 99 100 100 100 38 5 5 5 5 2 2 4 6 26 5 5 6 19 84 94 97 100 96

GFSFLT2_prec_cloud_042.txt.gz
Cloud_Cover
97 100 100 100 100 100 98 100 100 100 100 100 11 17 98 5 60 5 22 6 7 0 0 0 0 0 0 0 0 0 0 0
100 100 100 100 100 100 100 100 100 100 95 81 18 89 64 23 32 2 5 0 0 0 0 0 0 0 0 0 0 0 0 0
100 100 100 100 100 100 100 100 86 99 81 96 100 100 13 5 5 2 0 0 0 0 0 0 0 0 0 0 0 0 0 0
100 100 100 100 100 98 100 100 100 100 100 100 60 98 9 0 0 0 0 0 0 0 0 0 0 0 0 0 0 0 0 0
100 100 100 100 100 100 100 100 100 100 100 100 89 20 5 0 3 4 4 0 0 0 0 0 0 0 0 0 0 0 0 0
100 100 100 100 100 100 100 100 100 100 100 13 38 5 4 4 5 0 2 0 0 0 5 0 0 0 0 0 0 0 0 0
100 100 100 100 100 100 100 100 100 100 40 13 56 93 8 5 4 0 0 1 4 0 4 0 1 0 0 0 0 0 0 0
100 100 100 100 100 100 100 100 78 82 94 68 87 82 36 74 64 37 7 2 5 5 5 5 5 5 0 0 0 0 0 5
100 100 100 100 100 58 18 94 100 100 100 100 100 96 47 82 78 100 64 3 5 5 5 5 5 5 5 5 5 5 5 5
34 22 36 36 95 56 100 100 100 100 100 100 81 12 64 12 16 75 11 0 4 5 56 98 95 81 5 5 5 5 5 5
47 63 100 96 100 100 100 100 100 100 100 97 100 100 98 95 68 33 71 82 100 97 78 26 15 8 5 5 5 5 5 6
41 57 100 100 100 100 100 100 100 93 92 99 95 90 47 5 32 58 5 10 66 83 88 94 39 5 5 5 5 5 5 5
99 100 100 100 99 66 98 57 68 42 51 6 0 0 0 2 0 0 0 6 17 24 4 5 5 5 5 5 5 30 56 100
80 61 90 88 45 6 5 5 4 4 0 0 0 0 0 0 0 0 0 0 0 1 5 5 5 5 5 5 78 100 100 95
37 91 100 47 5 2 0 0 0 1 0 0 1 2 5 3 3 0 0 0 0 4 4 5 7 10 7 4 5 5 26 43
7 89 76 5 5 5 4 5 5 0 4 4 5 37 43 10 28 5 5 3 4 5 5 2 0 3 3 5 5 37 75 83
76 72 51 64 41 87 19 99 5 6 40 5 5 5 13 5 4 5 56 97 37 18 81 94 19 8 18 62 89 7 5 94
100 100 100 100 79 100 100 100 73 22 5 5 5 5 6 23 72 84 96 82 11 29 69 33 5 7 18 56 63 86 25 88
96 80 100 100 100 87 100 90 11 12 13 5 33 90 100 82 36 9 22 40 10 5 1 0 4 6 5 7 19 49 70 100
100 98 97 90 26 83 49 90 76 60 70 73 9 5 18 92 93 12 5 3 0 2 5 5 5 8 5 12 12 14 56 96

GFSFLT2_prec_cloud_045.txt.gz
Cloud_Cover
100 100 100 100 5 5 5 37 100 100 100 96 100 100 100 98 89 91 6 7 4 0 0 0 0 0 0 0 0 0 0 0
100 100 100 61 21 93 100 100 100 100 100 100 100 100 100 100 89 23 74 5 5 2 0 0 0 0 0 0 0 0 0 0
100 100 84 100 100 100 100 100 100 100 100 100 100 100 100 52 33 100 5 5 4 0 0 0 0 0 0 0 0 0 0 0
100 100 100 100 100 100 100 100 100 100 100 100 100 78 61 5 7 5 5 0 0 0 0 0 0 0 0 0 0 0 0 0
100 100 100 100 100 100 100 100 100 100 100 100 100 86 82 5 5 5 2 5 0 4 1 0 0 0 0 0 0 0 0 0
100 100 100 100 100 100 100 100 100 100 100 100 71 5 5 5 4 3 12 5 2 5 23 10 5 5 0 0 0 0 0 0
100 100 100 100 100 100 100 100 100 100 95 39 16 38 78 70 5 5 5 5 3 5 18 35 5 9 3 0 0 0 0 0
100 100 100 100 100 100 100 100 93 96 95 100 100 100 100 100 29 24 4 3 10 5 4 4 5 5 5 2 4 1 0 0
100 99 94 96 100 99 100 100 96 90 100 100 100 100 100 100 100 99 88 88 5 20 5 4 9 7 8 99 10 5 0 0
42 42 82 82 100 100 99 100 100 100 100 100 100 100 100 100 100 100 100 100 87 67 51 3 21 3 5 4 5 5 5 5
100 67 100 100 100 100 100 100 100 100 100 100 100 100 100 100 77 33 26 95 52 6 3 6 10 22 12 6 85 73 52 5
92 80 100 100 100 100 100 100 100 100 100 100 100 100 78 42 15 0 0 0 0 4 5 63 48 13 53 97 100 100 90 20
96 100 100 100 100 100 100 70 100 100 90 58 2 0 0 0 0 0 0 2 5 5 5 5 23 16 5 5 5 5 5 5
39 48 36 86 100 95 12 37 29 11 5 39 4 2 3 4 5 4 0 2 4 2 3 2 5 14 8 5 5 5 5 5
14 12 42 5 77 63 30 5 5 5 5 5 5 7 91 39 1 0 0 0 0 3 11 31 6 5 5 2 4 4 5 3
77 68 5 7 5 38 14 92 5 20 59 27 44 69 5 5 5 5 5 22 60 90 39 5 1 5 3 30 50 98 100 22
69 72 78 98 97 68 82 21 7 5 52 100 99 13 5 5 5 12 74 10 5 5 5 5 5 2 5 10 19 21 61 87
85 87 98 100 92 77 10 7 25 5 5 8 5 5 5 5 5 5 5 4 3 2 0 0 2 5 5 19 71 88 97 100
5 5 5 15 98 100 100 64 7 43 34 5 5 5 5 5 3 2 4 1 2 5 5 5 5 5 14 12 6 33 28 83
5 5 5 69 5 6 6 5 26 5 5 5 5 1 1 5 5 4 5 5 65 5 4 5 5 9 7 5 5 60 90 100

GFSFLT2_prec_cloud_048.txt.gz
Cloud_Cover
100 100 100 100 100 100 100 100 100 100 100 100 100 100 99 100 100 100 100 26 100 94 18 5 3 0 0 0 0 0 0 0
100 100 100 100 100 100 100 100 100 100 100 100 100 100 100 100 100 83 99 72 5 75 35 5 0 0 0 0 0 0 0 0
100 100 100 100 100 100 100 100 100 100 100 100 100 100 100 100 100 94 7 24 19 5 3 0 0 0 0 0 0 0 0 0
100 100 100 100 100 100 100 100 100 100 100 100 100 100 100 99 100 83 23 5 35 1 0 0 0 0 0 4 0 0 0 0
100 100 100 100 100 100 100 100 100 100 100 100 100 100 100 16 54 5 34 24 5 0 0 0 0 0 0 0 0 0 0 0
100 100 100 100 100 100 100 100 100 100 100 100 98 61 5 76 85 100 100 5 5 2 0 0 0 0 0 3 0 0 0 0
100 100 100 100 100 100 100 100 100 100 27 61 84 100 90 64 100 100 100 80 5 0 5 31 12 18 2 0 0 0 0 0
100 100 96 100 100 100 100 100 56 76 100 100 72 100 100 100 100 100 75 24 67 71 67 98 7 0 5 0 4 4 3 0
100 100 100 100 100 92 80 96 100 100 100 100 90 100 100 100 100 100 100 100 100 100 100 79 5 0 3 0 3 0 0 0
100 100 100 82 94 65 76 100 100 100 100 100 100 100 100 100 100 100 100 100 100 100 100 19 9 0 0 0 0 3 2 5
77 87 86 99 94 100 100 100 100 100 100 100 100 100 100 100 100 100 100 100 100 100 64 0 0 0 5 2 5 5 5 5
53 99 100 80 100 100 100 100 100 100 100 100 100 100 100 100 99 100 100 100 25 98 6 4 5 5 5 5 22 11 5 5
100 61 65 80 96 100 100 100 100 100 100 100 100 100 8 5 5 60 7 26 5 0 0 0 0 2 5 3 1 4 16 6
72 28 7 16 5 5 67 52 79 100 93 52 64 85 100 100 24 5 5 5 0 0 0 1 5 5 5 5 5 5 5 94
28 15 5 5 11 26 89 100 98 98 100 100 100 100 100 6 2 5 4 2 2 5 20 55 62 93 52 5 5 2 4 0
5 5 5 35 12 8 38 66 85 100 54 5 5 6 1 0 5 5 5 16 90 100 100 82 11 5 2 5 29 45 24 4
32 59 5 5 7 55 91 82 98 88 64 58 5 2 3 5 5 56 41 70 74 35 6 5 5 5 6 72 98 86 98 100
11 5 5 12 71 82 75 64 78 78 70 5 5 1 5 5 5 5 5 5 6 20 8 10 7 26 65 86 84 93 100 100
4 5 7 30 56 63 59 9 5 5 5 18 5 5 5 5 5 6 51 23 6 16 56 91 69 87 100 77 97 100 100 100
5 5 5 5 5 21 54 5 33 75 85 36 5 5 17 28 5 5 5 6 83 93 54 49 84 83 70 100 99 100 96 100

GFSFLT2_prec_cloud_051.txt.gz
Cloud_Cover
100 100 100 100 100 100 100 100 100 100 100 100 100 100 100 92 100 52 100 97 100 100 20 99 8 5 2 0 0 0 0 0
100 100 100 100 100 100 100 100 100 100 100 99 100 100 100 100 100 100 100 100 100 50 50 95 39 5 0 0 0 0 0 0
100 100 100 100 100 100 100 100 100 100 100 100 100 100 100 100 100 100 100 100 93 33 11 10 5 4 0 0 0 1 1 3
100 100 100 100 100 100 100 100 100 100 100 100 100 100 100 100 100 100 100 66 6 36 6 5 5 43 95 10 2 0 0 3
100 100 100 100 100 100 100 100 100 100 100 100 100 100 100 100 100 100 100 44 46 29 5 8 0 0 1 2 0 0 0 8
100 100 100 100 100 100 100 100 100 100 100 100 100 100 100 100 100 92 100 99 74 79 61 7 6 2 3 3 10 21 0 0
100 100 100 100 100 100 100 100 100 100 100 100 100 100 100 100 100 90 100 39 100 100 100 88 74 14 54 100 100 14 13 2
100 100 100 100 100 100 100 100 100 100 100 100 100 100 100 42 57 95 100 81 81 96 98 94 100 100 100 100 100 67 30 3
100 100 100 92 100 100 100 100 100 100 100 99 100 100 100 100 99 100 100 100 100 100 100 100 100 67 18 5 6 4 1 0
100 100 100 100 100 100 100 100 100 100 100 100 99 100 100 100 100 100 100 100 100 100 100 100 100 95 85 5 5 5 0 0
99 100 100 100 100 100 100 100 100 100 100 100 100 100 100 100 100 100 100 100 100 77 99 56 5 5 14 14 5 5 5 1
100 100 100 100 100 100 100 99 99 100 100 100 100 96 100 100 93 84 98 100 100 100 100 23 10 7 16 26 12 5 5 5
100 100 100 81 22 29 5 5 5 43 100 100 100 80 82 100 90 99 100 0 3 4 3 5 3 0 0 5 5 5 5 72
99 91 88 72 74 90 30 5 54 11 67 61 45 70 99 71 99 47 5 3 0 4 5 5 10 24 66 40 42 79 96 5
89 44 33 5 5 5 5 63 76 67 92 98 100 100 100 100 41 2 0 0 1 5 5 45 96 90 56 10 5 5 5 6
5 5 5 5 5 5 18 57 93 98 100 70 55 41 42 12 5 2 5 5 5 5 5 5 5 5 5 6 5 50 98 68
5 5 5 5 5 5 9 61 93 95 90 19 5 6 6 4 4 5 5 5 5 5 9 93 86 90 99 73 12 78 88 91
5 5 4 1 5 5 6 33 84 93 63 5 5 5 5 5 5 5 5 6 82 86 64 98 68 67 72 68 78 90 100 81
5 1 2 5 5 5 5 31 84 95 50 55 9 5 2 5 5 5 5 5 6 33 65 96 74 98 94 89 99 94 97 93
0 22 33 15 5 5 5 89 75 29 86 100 63 13 4 5 5 5 5 5 9 60 5 95 70 58 52 84 89 100 94 99

GFSFLT2_prec_cloud_057.txt.gz
Cloud_Cover
100 100 100 100 100 100 100 100 100 100 100 100 100 100 100 97 100 100 100 100 31 100 100 41 92 100 100 81 11 5 1 5
100 100 100 100 100 100 100 100 100 100 100 100 100 100 100 100 100 99 100 100 100 100 100 100 100 100 100 5 64 4 6 5
100 100 100 100 100 100 100 100 100 100 100 100 100 100 100 100 78 98 100 100 100 100 82 100 100 96 84 53 5 7 5 5
100 100 100 100 100 100 100 100 100 100 100 100 100 100 93 100 100 99 100 100 100 100 100 100 100 93 92 54 6 12 4 0
100 100 100 100 100 100 100 100 100 100 100 100 100 100 100 100 100 100 100 100 100 100 100 100 100 100 100 96 11 5 1 0
100 100 100 100 100 100 100 100 100 100 100 100 100 100 100 100 100 100 100 100 100 100 100 100 100 98 92 16 29 44 81 21
100 100 100 95 100 100 100 100 100 100 100 100 100 100 100 100 100 100 100 100 100 100 100 85 31 58 23 4 16 100 100 100
100 100 100 100 100 100 100 100 100 100 100 100 100 100 100 100 100 100 100 100 99 68 96 66 100 85 85 100 100 34 20 5
100 100 100 100 100 100 100 100 100 100 100 100 100 100 100 100 100 100 99 83 36 97 52 95 100 57 51 100 100 100 100 100
100 100 100 100 100 100 100 100 100 100 100 100 100 100 100 100 100 95 30 5 3 4 16 15 1 0 0 1 6 2 1 0
100 100 98 100 100 100 100 100 100 100 100 96 100 96 46 38 42 9 5 5 4 0 0 0 0 0 0 0 0 0 0 0
100 100 100 100 99 78 100 100 99 78 92 99 99 95 40 5 5 5 4 5 2 0 0 0 0 0 0 0 0 0 0 0
92 100 100 100 100 100 100 100 100 100 100 100 26 3 5 5 5 5 0 0 0 0 0 0 0 0 0 0 0 0 0 0
100 100 100 100 100 100 100 100 86 75 6 7 5 4 5 5 5 4 0 0 2 3 1 0 0 0 0 0 0 0 0 0
100 100 100 100 100 100 100 59 74 34 22 2 4 5 5 5 5 5 4 5 5 5 4 0 0 0 0 0 0 4 2 5
100 100 99 18 9 8 13 14 8 0 0 0 4 1 4 0 5 5 5 50 84 96 1 0 0 0 4 5 4 4 5 11
86 12 5 8 6 24 2 0 0 2 27 45 45 95 90 62 6 5 57 15 4 0 0 0 5 5 5 5 6 29 18 5
10 5 5 25 17 0 0 0 4 5 14 100 94 84 97 69 10 5 5 4 4 1 0 1 0 5 5 5 13 28 23 65
4 0 0 0 0 0 0 2 5 5 55 100 100 74 75 98 38 5 5 5 5 5 5 5 5 6 5 5 5 5 98 100
4 0 0 0 0 0 1 5 17 98 100 100 91 100 81 81 7 5 5 5 5 5 5 5 4 1 5 9 47 54 48 100

GFSFLT2_prec_cloud_060.txt.gz
Cloud_Cover
100 100 100 100 100 100 100 100 100 100 100 100 100 100 100 100 100 100 95 100 99 100 100 100 79 6 58 98 99 100 96 15
100 100 100 100 100 100 100 100 100 100 100 100 100 100 100 100 92 96 100 100 100 100 56 100 100 100 100 95 16 100 100 98
100 100 100 100 100 100 100 100 100 100 100 100 100 100 96 74 100 100 100 100 100 100 93 100 100 100 100 100 100 100 55 66
100 100 100 100 100 100 100 100 100 100 100 100 100 78 100 100 100 100 100 100 100 100 96 100 100 100 100 100 100 65 5 23
100 100 100 100 100 100 100 100 100 100 100 100 100 100 100 100 100 100 100 100 100 100 100 100 100 100 100 100 100 99 5 4
100 100 95 100 100 100 100 100 100 100 100 100 100 100 100 100 100 100 100 100 100 100 100 100 100 100 100 87 80 14 41 57
100 100 100 100 100 100 100 100 100 100 100 100 100 100 100 100 100 100 100 100 100 100 100 100 100 100 90 89 32 75 100 85
100 100 100 100 100 100 100 100 100 100 100 100 100 100 100 100 100 100 100 100 100 100 100 100 70 20 5 5 2 0 0 0
100 100 100 100 100 100 100 100 100 100 100 100 100 100 100 100 100 100 100 100 100 100 73 19 22 5 5 4 0 0 0 0
100 100 100 100 100 100 100 100 100 100 100 100 100 100 100 100 100 100 100 22 14 6 5 5 5 4 0 0 0 0 0 0
100 100 100 100 100 100 100 100 100 100 100 100 100 100 100 94 95 77 99 56 50 20 5 3 0 0 0 0 0 0 0 0
100 100 100 100 100 100 100 100 100 100 98 98 100 100 100 100 100 100 93 13 5 4 0 0 0 0 0 0 0 0 0 0
100 100 100 100 100 100 100 100 63 100 100 100 100 100 14 5 2 5 19 4 0 0 0 0 0 5 0 0 0 0 0 0
98 100 100 97 100 100 98 97 98 100 100 100 100 98 87 23 52 6 5 4 1 3 5 5 21 3 0 0 0 0 0 0
95 58 99 100 100 100 100 100 100 98 76 6 7 15 15 2 5 1 1 0 5 5 5 3 0 1 0 0 0 0 2 12
99 100 100 100 100 100 100 100 99 74 24 34 6 1 4 0 1 2 4 5 5 5 5 4 0 0 0 0 2 4 5 37
100 100 70 34 7 10 14 39 32 41 3 0 1 5 5 5 5 5 5 5 5 3 0 0 0 0 0 1 5 7 6 5
18 10 19 36 13 58 67 8 0 0 1 5 40 65 90 99 79 73 27 22 5 0 0 1 5 0 2 7 49 5 5 5
29 70 58 14 2 0 0 0 0 5 5 24 96 87 83 56 100 100 69 5 5 5 5 5 3 1 5 5 5 5 5 5
4 1 0 0 0 0 0 0 5 41 18 100 100 98 100 64 100 99 86 5 5 5 67 5 5 5 5 5 5 5 5 5

GFSFLT2_prec_cloud_063.txt.gz
Cloud_Cover
100 100 100 100 100 100 100 100 100 100 100 100 100 100 100 100 100 99 96 100 100 100 100 92 15 54 99 100 37 82 14 5
100 100 100 100 100 100 100 100 100 100 100 100 100 100 100 100 100 82 100 98 48 100 90 10 100 100 100 42 54 14 78 19
100 100 100 100 100 100 100 100 100 100 100 100 100 97 100 100 100 100 100 100 94 100 100 100 100 100 82 54 99 100 100 100
100 100 100 100 100 100 100 100 100 100 100 100 100 100 100 100 99 100 100 100 100 100 100 100 100 100 100 100 100 100 100 100
100 100 100 100 100 100 100 100 100 100 100 100 94 91 99 100 100 100 100 100 100 99 100 100 100 100 100 76 92 100 100 100
100 100 100 100 100 100 100 100 100 100 100 100 100 100 100 100 100 100 100 100 99 100 100 88 100 100 100 100 100 72 5 4
100 100 100 100 100 100 100 100 100 100 100 100 100 100 100 44 100 100 100 100 100 100 100 100 100 100 100 100 15 21 32 22
100 100 100 100 100 100 100 100 100 100 100 100 100 100 100 100 89 66 80 99 100 100 100 100 98 67 36 8 65 77 93 18
100 100 100 100 100 100 100 100 100 100 100 100 100 100 62 96 97 100 100 100 100 100 94 99 100 93 90 16 88 6 0 0
100 100 100 100 100 100 100 100 100 100 100 100 99 100 100 100 98 100 100 100 100 100 100 82 35 60 17 5 0 0 0 0
100 100 100 100 100 100 100 100 86 100 100 68 100 100 100 100 93 100 100 100 100 74 56 26 56 51 3 0 0 0 0 0
100 100 100 67 100 90 96 98 100 100 100 95 96 100 100 95 96 100 100 100 100 99 27 5 3 0 0 0 0 0 1 0
100 100 100 100 100 81 100 100 72 100 90 100 100 97 100 100 100 100 60 5 5 5 2 0 0 0 0 0 0 0 0 0
100 100 100 100 100 100 100 100 100 100 100 100 100 100 100 100 62 5 28 5 2 0 0 0 0 0 0 0 0 0 0 0
100 100 80 100 95 95 100 100 100 100 100 100 100 100 44 5 22 4 0 0 1 1 4 31 12 3 0 0 0 0 0 0
85 99 21 66 56 100 100 100 99 82 76 14 25 80 46 4 5 1 4 3 6 74 78 77 5 0 0 0 0 0 0 3
100 100 100 100 98 100 100 97 91 22 6 24 38 5 2 1 6 12 7 7 82 92 74 73 3 5 5 5 5 2 3 5
100 100 100 84 66 70 6 12 32 36 6 3 5 5 14 79 97 100 100 100 82 5 9 61 6 5 5 5 5 5 5 5
100 100 100 96 51 21 56 18 2 2 5 5 12 5 89 98 70 100 100 99 40 5 42 5 5 5 5 58 38 5 5 5
97 100 60 19 47 8 3 5 4 5 5 8 81 44 100 99 100 100 72 29 89 62 100 19 5 38 75 56 41 10 5 6

GFSFLT2_prec_cloud_066.txt.gz
Cloud_Cover
100 100 100 100 100 100 100 100 100 100 100 100 100 100 100 100 100 100 100 71 16 24 94 15 100 95 64 75 32 73 100 92
100 100 100 100 100 100 100 100 100 100 100 100 100 100 100 100 100 99 100 100 72 86 26 8 90 62 19 36 100 17 25 100
100 100 100 100 100 100 100 100 100 100 100 100 100 100 100 100 100 100 100 100 89 47 44 100 95 100 100 46 82 92 100 100
100 100 100 100 100 100 100 100 100 100 100 100 100 100 100 100 100 100 100 94 96 98 100 98 54 55 100 100 100 88 99 100
100 100 100 100 100 100 100 100 100 100 100 100 100 99 100 100 98 99 100 100 100 100 100 43 52 12 11 32 16 3 5 17
100 100 100 100 100 100 100 100 100 100 100 100 100 100 100 100 100 100 100 100 98 19 52 100 95 5 3 5 14 7 5 6
100 100 100 100 100 100 100 100 100 100 100 100 100 100 100 100 100 100 86 82 100 100 94 6 5 5 34 65 88 53 5 2
100 100 100 100 100 100 100 100 100 100 100 100 100 100 100 100 100 100 100 100 100 86 75 60 97 6 43 6 5 5 8 8
100 100 97 100 100 100 100 100 100 100 100 100 100 100 100 88 57 98 25 24 97 100 93 98 64 8 44 9 77 15 41 7
100 100 100 100 100 100 100 100 100 100 100 98 66 89 86 61 70 95 61 100 100 97 60 82 65 57 31 5 15 33 2 0
100 100 100 100 100 100 100 100 100 100 100 100 98 55 13 76 73 74 99 73 62 100 100 100 36 5 10 5 0 0 0 0
96 100 100 100 100 98 100 100 100 100 90 98 100 90 84 5 81 100 100 43 74 100 74 14 6 5 1 0 0 0 0 0
67 100 100 100 100 100 100 100 97 100 100 100 97 100 100 100 100 100 100 71 99 53 42 5 1 0 0 3 1 0 0 0
100 100 100 100 100 100 100 100 100 100 100 100 100 100 100 100 96 84 90 46 71 66 4 1 0 4 5 5 5 1 0 0
100 100 100 100 100 100 100 100 100 100 100 100 100 100 100 97 60 72 80 67 5 5 4 5 5 5 5 5 12 2 0 2
100 100 100 100 100 100 100 100 100 100 100 98 37 62 88 72 99 75 8 18 5 5 4 5 36 4 5 5 5 2 5 5
100 100 100 100 100 100 100 100 100 100 100 81 45 15 83 36 26 66 18 6 32 22 44 5 5 5 5 5 5 4 5 5
92 100 100 86 42 100 100 100 100 95 77 69 46 16 34 90 69 99 85 60 81 99 67 5 49 5 5 5 5 5 5 6
100 98 98 100 100 100 100 100 64 85 38 6 4 14 94 92 58 93 100 100 100 87 57 47 5 5 5 5 5 5 22 19
100 100 82 98 99 100 100 100 46 15 5 5 2 5 9 100 100 100 100 100 100 100 76 8 5 5 5 9 89 96 62 82

GFSFLT2_prec_cloud_069.txt.gz
Cloud_Cover
100 100 100 100 100 100 100 100 100 100 100 100 100 100 100 100 100 100 100 100 19 5 5 5 5 5 5 5 5 5 5 5
100 100 100 100 100 100 100 100 100 100 100 100 100 100 100 100 100 100 100 100 100 100 48 86 56 5 5 5 5 59 38 88
100 100 100 100 100 100 100 100 100 100 100 100 100 100 100 100 100 100 100 100 93 100 100 94 100 17 77 94 66 5 6 31
100 100 100 100 100 100 100 100 100 100 100 100 100 100 100 100 99 91 81 100 99 75 100 97 50 66 13 60 60 18 23 3
100 100 100 100 100 100 100 100 100 100 100 100 96 80 100 97 100 100 90 68 94 45 100 6 42 6 36 17 82 29 2 4
100 100 100 100 100 100 100 100 100 100 100 100 100 100 100 100 100 100 100 100 100 77 56 100 79 37 20 5 5 32 5 8
100 100 100 100 100 100 100 100 100 100 100 100 100 100 100 100 100 100 95 100 30 97 100 84 16 13 11 5 5 7 7 19
100 100 100 100 100 100 100 100 100 100 100 98 100 100 100 100 83 100 90 10 84 100 98 50 99 10 23 65 17 69 48 5
100 100 100 100 100 100 100 100 100 100 100 100 100 65 100 78 8 61 27 70 39 35 5 77 22 35 98 12 62 25 5 22
100 100 100 100 100 95 100 100 100 100 100 100 100 100 100 100 100 94 90 87 5 44 17 28 100 99 21 91 99 52 5 5
100 100 100 100 100 100 100 100 100 100 100 100 100 100 100 100 100 98 6 5 39 62 97 100 98 91 58 26 5 5 4 0
100 100 100 100 100 99 97 100 100 100 100 100 100 100 100 93 58 8 81 100 100 99 52 14 18 25 5 5 5 1 0 0
100 100 100 100 100 100 100 100 100 100 100 100 100 100 100 66 86 42 76 100 100 96 6 29 55 34 5 2 0 2 0 0
100 94 100 100 97 100 100 100 100 100 100 100 100 100 100 100 89 100 95 43 65 42 24 59 5 3 3 3 0 0 0 0
43 99 62 76 82 96 81 100 100 100 100 100 100 100 52 65 100 100 58 35 40 47 23 5 5 5 4 57 0 0 0 0
81 36 51 75 90 88 100 100 100 100 100 100 100 100 73 76 55 34 38 9 5 33 8 5 5 5 8 2 0 1 3 5
100 100 100 100 98 81 98 99 100 100 100 100 100 95 21 51 26 5 42 92 100 100 31 70 39 6 5 5 5 5 5 5
100 100 100 100 100 100 100 100 100 100 100 100 100 100 61 6 5 19 77 68 100 100 100 71 67 50 17 5 5 5 5 5
100 100 100 100 100 100 100 100 100 100 100 100 100 94 6 5 5 29 52 72 100 100 87 71 40 28 5 5 5 5 5 5
100 100 100 100 100 100 100 100 100 100 100 100 100 26 5 23 76 16 100 100 99 83 47 6 8 5 5 5 5 5 5 5

GFSFLT2_prec_cloud_072.txt.gz
Cloud_Cover
98 100 100 100 100 100 100 100 100 100 100 100 100 100 100 100 100 100 100 100 100 100 65 81 32 99 76 4 5 2 3 0
100 100 100 100 100 100 100 100 100 100 100 100 100 100 100 100 100 100 100 100 100 100 100 100 96 100 58 72 4 5 5 5
100 100 100 100 100 100 100 100 100 100 100 100 100 100 100 100 100 100 100 100 100 100 100 100 90 100 74 13 30 16 9 4
100 100 100 100 100 100 100 100 100 100 100 100 100 100 100 100 90 100 100 100 100 97 97 100 88 14 68 100 100 98 100 19
100 100 100 100 100 100 100 100 100 100 100 100 100 100 100 100 100 98 99 100 100 100 100 100 100 76 13 6 5 76 96 52
100 100 100 100 100 100 100 100 100 100 100 100 100 100 88 100 100 100 98 100 100 100 96 14 5 58 5 14 57 90 10 5
100 100 100 100 100 100 100 100 100 100 100 100 100 99 83 100 100 100 100 92 82 53 38 8 6 5 8 11 5 4 5 11
100 100 100 100 100 100 100 100 100 100 100 100 100 100 100 100 99 100 65 44 98 63 48 5 14 55 96 6 19 11 65 6
100 100 100 100 100 100 100 100 100 100 100 100 100 100 100 100 100 70 76 96 95 99 99 100 100 100 100 5 27 7 5 5
100 100 100 100 100 100 100 100 100 100 100 100 100 100 73 58 51 71 76 45 100 100 100 67 84 25 5 43 7 5 5 6
77 100 100 100 100 100 100 100 100 100 100 100 100 52 88 100 86 100 100 100 96 90 78 64 97 82 95 5 5 5 20 5
100 100 100 100 100 100 100 100 100 100 100 100 100 100 97 86 93 100 80 74 92 100 100 51 74 100 73 13 5 5 5 2
100 100 100 100 100 100 100 100 100 83 100 100 100 100 100 94 100 100 100 100 100 100 9 9 90 22 3 5 5 5 0 0
100 100 100 100 100 100 100 100 100 100 100 100 100 100 100 85 86 100 100 100 86 25 20 17 12 5 5 5 4 0 1 2
100 77 85 100 100 100 100 100 100 100 100 100 100 100 100 100 100 100 100 72 66 6 11 29 5 14 5 5 5 5 0 0
100 54 43 56 75 26 57 99 100 100 100 100 100 100 91 92 100 100 100 94 53 5 56 40 96 25 5 5 5 3 0 1
82 41 58 91 84 97 74 90 100 100 100 100 100 100 99 100 100 100 100 97 13 54 5 18 100 77 7 5 0 2 5 7
98 100 100 100 100 100 100 100 98 100 100 100 100 96 100 100 100 100 100 100 69 86 100 100 90 15 28 0 5 5 5 5
100 100 100 46 76 93 100 100 100 100 100 100 100 95 100 100 100 100 100 60 99 100 100 100 79 8 5 5 5 5 5 5
100 100 100 100 100 100 100 100 100 100 100 100 100 100 100 100 100 99 8 29 100 100 100 100 99 7 5 5 5 5 5 5

GFSFLT2_prec_cloud_075.txt.gz
Cloud_Cover
100 100 100 100 99 84 92 100 100 100 100 100 100 100 100 100 100 100 100 100 100 100 100 100 100 100 100 99 100 99 91 0
100 100 100 100 100 100 100 100 100 100 100 99 100 100 100 100 100 100 100 100 100 100 100 100 100 100 100 100 100 99 19 3
100 100 100 100 100 100 100 100 100 100 100 100 100 100 100 100 100 100 100 100 97 100 100 100 97 88 97 99 84 84 5 5
100 100 100 100 100 100 100 100 100 100 100 100 100 100 100 100 100 100 100 100 100 96 100 82 95 100 100 100 100 72 4 0
100 100 100 100 100 100 100 100 100 100 100 100 100 100 100 100 100 100 100 100 100 100 82 93 100 96 100 96 86 20 5 14
100 100 100 100 100 100 100 100 100 100 100 100 100 100 100 100 100 100 100 100 100 100 98 89 97 100 39 99 17 10 70 80
100 100 100 100 100 100 100 100 100 100 100 100 100 100 100 100 98 80 91 91 99 100 100 82 13 62 100 100 99 82 100 99
100 100 100 100 100 100 100 100 100 100 100 100 100 100 100 100 100 100 100 100 100 100 95 25 11 39 13 99 100 100 27 7
100 100 100 100 100 100 100 100 100 100 100 100 100 100 100 100 100 100 100 100 100 100 100 57 24 69 100 100 68 45 38 66
100 100 100 100 100 100 100 100 100 100 100 100 100 100 100 100 100 100 100 99 98 96 74 65 71 100 44 18 94 100 94 5
100 100 100 100 100 100 100 100 100 100 100 100 100 100 100 100 100 100 79 52 90 88 39 100 90 95 100 100 97 6 5 4
100 100 100 100 100 100 100 100 100 100 100 100 100 100 100 100 100 99 11 44 89 77 70 95 100 100 100 54 5 3 4 0
100 100 100 100 100 92 100 100 100 100 100 100 100 100 100 100 100 100 98 69 100 97 89 100 100 100 47 28 5 6 2 0
100 100 100 100 100 99 100 100 100 100 100 100 100 100 100 100 91 84 100 100 100 93 49 42 34 14 5 5 5 5 5 5
100 100 100 100 100 100 100 100 100 100 100 100 96 92 93 100 100 100 100 100 95 99 96 91 94 55 16 5 5 5 4 0
100 100 100 100 100 100 100 100 100 100 95 100 100 100 100 100 100 98 100 61 45 93 100 100 100 100 97 97 12 4 1 0
61 77 99 100 100 85 74 49 100 100 100 64 100 99 100 100 100 100 100 100 100 100 100 100 100 100 91 19 44 11 5 5
4 5 42 53 74 71 88 86 100 100 100 100 98 100 100 100 100 100 100 100 100 100 100 100 100 100 94 76 97 27 4 5
24 76 38 51 79 100 94 86 100 98 100 100 100 100 100 100 100 100 100 100 100 100 100 100 100 100 100 93 52 2 5 5
100 14 55 94 71 59 100 100 100 100 100 100 100 100 100 100 100 100 100 100 100 100 100 100 100 100 71 18 5 5 5 5

GFSFLT2_prec_cloud_078.txt.gz
Cloud_Cover
100 100 100 100 100 71 72 42 82 96 100 100 100 58 100 93 100 100 100 100 98 100 100 98 100 84 86 49 100 100 100 61
100 100 100 100 100 91 100 100 100 100 100 100 100 98 100 100 100 100 100 100 100 100 80 62 99 89 99 7 21 82 40 69
100 100 100 100 100 100 100 100 100 100 100 100 100 100 100 100 100 100 100 100 100 100 100 99 100 91 84 100 100 60 7 4
100 100 100 100 100 100 100 100 100 100 100 100 100 100 100 100 100 100 100 100 100 100 100 100 100 63 81 34 20 12 85 48
100 100 100 100 100 100 100 100 100 100 100 100 100 100 100 100 100 100 100 100 100 100 95 100 100 66 68 50 80 92 100 15
100 100 100 100 100 100 100 100 100 100 100 98 100 100 100 100 100 100 100 100 92 100 100 90 94 56 7 95 18 5 7 6
100 100 100 100 100 100 100 100 100 100 100 100 100 100 100 100 100 100 100 100 97 99 79 100 67 99 100 47 53 45 70 58
100 100 100 100 100 100 100 100 100 100 100 100 100 100 100 100 100 100 100 100 100 100 99 73 100 99 100 100 100 100 21 100
100 100 100 100 100 100 100 100 100 100 100 100 100 100 100 100 100 100 100 100 100 100 100 100 100 100 64 79 84 50 82 9
100 100 100 100 100 100 100 100 100 100 100 100 100 100 100 100 100 100 100 100 88 95 71 97 62 61 100 53 78 96 29 31
100 100 100 100 100 100 100 100 100 100 100 100 100 100 100 100 100 99 99 100 100 100 100 92 95 41 76 100 100 100 68 5
100 100 100 100 100 100 100 100 100 100 100 100 100 100 100 100 100 100 100 100 100 97 94 78 74 99 100 100 100 94 75 6
100 100 100 100 100 100 100 100 100 100 100 100 100 100 100 100 100 100 100 100 100 72 44 100 79 98 100 100 100 98 33 5
100 100 100 100 100 84 100 100 100 100 100 100 100 100 100 100 100 100 100 95 96 100 97 61 95 100 100 57 99 34 98 99
100 100 100 100 72 47 100 100 100 100 100 100 100 100 100 100 96 100 100 98 69 68 100 100 84 59 94 100 100 99 85 11
100 100 100 100 100 100 100 100 100 100 99 100 100 100 100 100 100 100 75 100 100 100 100 100 100 81 100 100 100 100 100 100
79 90 100 100 100 100 100 100 100 100 100 100 99 100 98 100 100 100 100 99 100 100 100 100 100 100 100 100 99 94 64 100
51 96 100 100 100 100 100 100 90 98 93 96 88 100 100 100 100 100 100 88 100 100 100 100 100 100 100 100 100 100 100 100
100 86 66 97 56 100 100 100 100 100 100 100 100 100 100 100 100 100 100 100 100 100 100 100 100 100 100 100 100 100 89 95
18 11 77 20 6 84 97 100 100 100 100 100 100 100 100 100 100 98 100 100 100 100 100 100 100 100 100 100 100 100 100 96

GFSFLT2_prec_cloud_081.txt.gz
Cloud_Cover
100 100 100 100 100 100 100 100 82 10 56 96 86 5 13 58 73 95 98 99 100 100 100 100 100 51 14 68 100 100 100 82
100 100 100 100 100 100 100 100 31 91 55 65 87 100 96 80 60 91 100 100 100 100 100 100 25 32 88 90 85 5 21 20
100 100 100 100 100 100 100 100 100 100 100 100 100 100 100 100 94 99 100 100 79 80 100 79 69 85 79 100 100 62 6 2
100 100 100 100 100 100 100 100 100 100 100 100 100 100 100 100 100 100 100 100 100 100 100 100 100 100 100 100 100 24 5 5
100 100 100 100 100 100 100 100 99 99 100 100 100 100 100 100 100 100 100 100 99 98 100 100 100 100 91 80 74 58 5 5
100 100 100 100 100 100 100 100 100 100 100 100 100 100 100 100 100 100 100 100 100 100 100 100 100 92 40 99 98 85 94 10
100 100 100 100 100 100 100 100 100 100 100 100 100 100 100 100 100 100 100 100 100 100 100 100 93 94 93 100 67 78 5 10
100 100 100 100 100 100 100 100 100 100 100 100 100 100 97 100 100 100 100 100 100 100 100 100 98 100 100 100 94 72 100 53
100 100 100 100 100 100 100 100 100 100 100 100 100 100 100 100 100 100 100 100 100 100 100 100 100 100 100 100 100 82 10 5
100 100 100 100 100 100 100 100 100 100 100 100 100 100 100 100 100 100 100 100 100 100 100 100 100 100 100 94 99 54 43 83
100 100 100 100 100 100 100 100 100 100 100 100 100 100 100 100 100 100 100 100 100 100 100 100 100 100 100 100 100 71 76 100
100 100 100 100 100 100 100 100 100 100 100 90 93 100 96 100 96 100 100 100 99 100 100 83 92 100 76 95 35 94 100 100
100 100 100 100 100 100 100 100 100 100 100 100 100 100 100 100 100 100 100 100 99 95 100 81 91 67 93 100 100 100 100 94
77 79 100 100 100 100 100 100 100 100 100 100 100 100 100 100 100 100 100 100 100 100 100 100 93 100 100 100 100 100 100 99
98 64 96 100 93 97 76 98 99 100 100 100 100 100 100 100 100 100 100 100 88 100 100 100 100 100 100 97 100 99 29 89
1 54 47 16 90 57 11 42 100 100 96 100 100 100 95 100 100 99 100 100 100 100 100 100 88 100 100 97 96 86 49 100
38 41 45 97 100 100 100 100 100 100 100 100 100 100 100 100 100 100 100 100 100 100 100 100 100 99 66 100 100 100 100 100
100 100 100 97 90 82 99 100 100 100 100 100 100 100 100 100 100 100 100 100 100 100 100 96 100 100 99 87 99 100 100 100
93 100 80 11 31 55 41 72 100 100 100 97 100 100 100 98 100 100 100 100 97 99 100 100 100 100 100 100 100 100 100 97
100 100 100 64 20 6 5 10 57 62 86 100 100 100 100 97 100 98 100 100 100 100 100 100 100 100 100 100 100 100 100 100

GFSFLT2_prec_cloud_084.txt.gz
Cloud_Cover
100 100 100 100 100 100 100 100 100 99 83 71 19 100 82 100 100 100 100 100 100 100 56 93 47 100 100 99 5 5 80 79
100 100 100 100 100 100 100 100 100 100 100 88 43 100 69 99 78 23 76 100 100 100 100 100 98 100 100 26 84 100 98 14
100 100 100 100 100 100 100 100 100 100 100 74 46 100 99 95 100 100 100 94 100 100 100 100 37 100 100 72 86 97 78 100
100 100 100 100 100 100 100 100 100 100 100 50 100 100 100 98 98 100 100 100 100 100 100 66 56 78 98 73 91 100 100 100
100 100 100 100 100 100 100 100 100 100 100 94 100 100 100 100 100 100 100 100 99 100 78 6 54 73 100 100 100 100 95 74
100 100 100 100 100 100 100 100 100 99 98 100 100 100 100 100 100 98 84 100 95 93 73 100 100 100 100 100 100 100 93 58
100 100 100 100 100 100 100 100 100 100 100 100 99 100 100 100 100 99 98 100 100 75 73 99 100 100 100 100 100 88 88 88
100 100 100 100 100 100 100 100 100 100 100 98 100 100 73 92 100 78 89 96 86 94 100 100 95 80 98 100 100 88 91 100
100 100 100 100 100 100 100 100 100 100 100 100 98 100 100 100 98 99 97 99 100 100 100 100 100 100 100 100 100 100 100 100
100 100 100 100 100 100 100 100 100 100 100 100 100 100 97 100 100 100 100 100 100 100 100 100 100 100 100 96 100 83 72 100
100 100 100 100 100 100 100 100 100 100 100 100 100 100 95 88 64 100 99 87 99 98 78 86 99 94 63 93 72 96 100 100
100 100 100 100 100 100 100 100 100 100 100 100 99 95 99 80 9 84 48 52 76 96 100 100 29 22 74 72 100 94 94 86
100 100 100 100 100 100 100 100 100 100 100 100 100 97 95 52 50 67 43 81 99 100 100 100 100 98 95 98 100 88 100 100
100 100 100 100 100 100 100 100 100 100 100 100 100 100 100 100 100 99 100 96 100 100 100 100 61 96 100 99 100 100 100 100
100 100 100 100 100 100 100 100 100 100 100 100 100 100 100 100 100 100 100 100 96 100 95 100 100 100 100 100 100 100 100 100
100 100 100 100 100 100 100 100 100 100 100 100 100 100 100 100 100 100 100 100 100 100 100 100 100 100 100 100 100 100 100 100
100 100 100 100 100 100 100 100 100 100 100 100 100 100 100 100 100 100 100 94 100 77 54 100 99 100 100 100 100 99 63 100
16 93 100 100 100 100 100 100 100 100 100 100 100 100 100 100 100 100 100 100 100 100 100 100 100 100 100 100 100 100 100 100
4 0 3 9 48 95 80 5 4 85 53 51 77 100 100 100 100 98 77 80 82 91 97 73 93 100 100 100 100 100 100 99
96 86 62 5 22 39 5 5 5 6 8 5 19 18 42 73 93 88 100 100 97 100 100 100 98 100 100 100 100 100 100 100

GFSFLT2_prec_cloud_087.txt.gz
Cloud_Cover
100 100 100 100 100 100 100 100 100 100 100 100 100 100 25 8 100 100 100 41 12 36 100 100 100 82 6 5 52 92 81 5
100 99 100 100 100 100 100 100 100 100 100 100 100 100 6 31 5 5 10 73 5 5 84 100 96 100 100 15 86 100 56 6
100 100 100 100 100 100 100 100 100 100 100 97 73 97 93 20 46 5 5 14 5 22 14 100 100 100 24 90 100 66 91 99
100 100 100 100 100 100 100 100 100 100 100 100 100 100 95 40 30 5 95 33 6 37 5 27 100 99 100 100 96 71 30 43
100 100 100 100 100 100 100 100 100 100 100 100 100 100 66 97 94 60 99 100 62 16 5 88 100 71 76 55 36 81 100 100
100 100 100 100 100 100 100 100 100 100 100 100 100 100 88 100 100 79 99 100 82 99 96 92 99 69 6 75 99 100 27 5
100 100 100 100 100 100 100 100 100 100 100 100 100 100 100 100 100 99 100 100 44 34 31 88 100 96 45 66 77 98 96 13
100 100 100 100 100 100 100 100 100 100 100 100 100 100 100 100 100 99 100 100 93 15 9 18 79 99 100 100 97 86 93 85
100 100 100 100 100 100 100 100 100 100 100 100 100 100 100 100 100 100 98 98 100 93 12 52 90 100 100 100 99 98 100 100
100 100 100 100 100 100 100 100 100 100 100 100 100 100 100 100 100 94 100 100 100 100 96 100 100 100 99 100 100 95 72 100
100 100 100 100 100 100 100 100 100 100 100 100 100 100 100 100 100 100 100 100 69 94 100 100 100 95 61 64 82 94 100 97
100 100 100 100 100 100 100 100 100 100 100 100 100 100 100 100 100 99 94 83 58 87 100 100 100 100 100 52 92 100 100 92
100 100 100 100 100 100 100 100 100 100 100 100 100 100 96 77 96 65 86 74 100 100 100 100 100 100 100 100 100 100 100 78
100 100 100 100 100 100 100 100 100 100 100 100 100 100 100 100 92 100 100 100 100 100 100 100 100 100 100 100 100 100 100 100
100 100 100 100 100 100 100 100 100 100 100 100 100 100 100 100 100 100 100 100 100 100 100 100 100 100 100 100 100 100 100 100
100 100 100 100 100 100 100 100 100 100 100 100 100 100 100 100 100 100 100 100 100 100 100 98 100 93 63 96 100 100 100 100
100 100 100 100 100 100 100 100 100 100 100 100 100 100 100 100 100 100 100 100 100 100 99 100 100 100 100 100 100 100 100 95
100 100 100 100 100 100 100 100 100 100 100 100 100 100 100 100 100 100 100 100 100 100 100 100 100 100 85 100 100 100 100 100
70 100 98 79 100 100 100 100 100 100 100 100 100 100 100 100 100 100 100 100 20 22 32 95 100 100 100 100 100 100 100 100
54 9 99 92 88 70 30 12 100 100 89 18 19 41 72 61 67 84 82 33 37 100 97 100 100 100 100 100 100 100 100 100

GFSFLT2_prec_cloud_090.txt.gz
Cloud_Cover
100 100 100 100 100 100 100 100 100 100 100 100 100 98 100 100 99 100 78 100 100 100 95 97 5 5 91 31 100 72 9 99
37 100 91 65 100 100 100 100 100 100 100 100 100 100 83 100 85 60 24 64 61 64 47 58 19 5 67 100 16 12 60 99
100 96 100 98 100 100 100 100 100 100 96 100 95 100 100 100 70 48 27 83 77 100 100 100 95 42 32 95 21 10 6 92
100 100 100 100 100 100 100 100 100 93 100 100 100 100 96 95 75 13 64 94 100 100 100 100 100 82 73 87 92 9 5 72
100 100 100 100 100 100 100 100 100 100 100 100 100 96 53 23 31 18 77 100 99 100 100 99 93 100 97 75 66 92 69 19
100 100 100 100 100 100 100 100 100 100 100 100 100 80 98 90 96 69 96 96 97 98 100 100 86 100 91 51 35 76 62 56
100 100 100 100 100 100 100 100 100 100 100 100 100 100 97 100 96 80 95 44 58 98 100 100 95 99 100 100 100 100 99 91
100 100 100 100 100 100 100 100 100 100 100 100 100 100 100 100 100 100 100 70 99 100 98 100 96 94 100 100 100 100 100 100
100 100 100 100 100 100 100 100 100 100 100 100 100 100 100 100 100 100 100 100 56 99 83 80 100 88 91 100 100 100 100 100
100 100 100 100 100 100 100 100 100 100 100 100 100 100 100 94 100 100 100 96 99 100 84 100 98 87 90 100 90 98 100 100
100 100 100 100 100 100 100 100 100 100 100 100 100 100 100 98 95 100 100 100 100 99 100 100 100 100 100 100 100 100 100 100
100 100 100 100 100 100 100 100 100 100 100 100 100 100 100 100 100 100 100 100 96 96 100 100 100 100 100 100 100 100 100 100
100 100 100 100 100 100 100 100 100 100 100 100 100 100 100 100 100 100 100 100 99 100 100 100 100 100 100 100 100 100 100 100
100 100 100 100 100 100 100 100 100 100 100 100 100 100 100 100 100 100 100 100 100 100 100 96 100 100 100 100 100 100 100 100
100 100 100 100 100 100 100 100 100 100 100 100 100 100 100 100 100 100 100 100 100 100 100 100 100 100 98 100 100 100 99 100
100 100 100 100 100 100 100 100 100 100 100 100 100 100 100 100 100 100 100 100 100 100 100 100 100 100 100 100 100 100 100 100
100 100 100 100 100 100 100 100 100 100 100 100 100 100 100 100 100 100 100 100 100 100 100 100 100 100 100 100 98 100 100 60
100 100 100 100 100 100 100 100 100 100 100 100 100 100 100 100 100 100 100 100 100 100 100 100 100 100 94 100 100 75 100 94
100 100 100 100 100 100 100 100 100 100 100 100 100 100 100 100 100 100 100 100 100 100 100 100 100 100 90 100 100 62 100 97
100 100 100 100 100 100 100 100 100 100 100 100 100 100 100 100 100 100 100 100 89 92 92 100 100 100 52 50 43 98 100 100

GFSFLT2_prec_cloud_093.txt.gz
Cloud_Cover
100 100 100 100 100 100 71 98 100 100 95 100 100 100 100 100 100 100 100 100 96 100 94 96 72 24 12 21 86 11 22 13
100 100 100 100 100 100 100 100 100 100 100 100 100 100 100 100 100 100 100 100 100 100 78 49 5 5 5 39 45 65 94 97
100 100 100 100 100 99 97 100 100 100 100 100 100 100 100 100 100 100 100 100 74 20 5 48 5 5 5 19 6 5 43 74
100 100 95 90 100 78 100 100 100 100 100 100 100 98 100 100 100 100 26 95 29 84 5 44 5 5 5 93 76 85 36 42
100 100 100 93 100 100 100 100 100 100 100 70 99 74 83 100 7 11 28 47 94 100 65 94 99 97 100 100 73 99 99 99
100 100 100 100 100 100 100 100 100 100 100 67 100 100 100 100 34 99 62 100 76 100 100 98 100 100 100 99 67 98 95 83
100 100 100 100 100 100 100 100 100 100 100 99 100 100 100 100 98 98 84 96 84 100 100 94 98 76 53 94 41 96 80 34
100 100 100 100 100 100 100 100 100 100 100 100 100 99 100 100 99 100 100 96 99 100 98 92 82 60 77 28 28 73 100 100
100 100 100 100 100 100 100 100 100 100 100 100 100 63 98 100 100 100 100 99 90 100 100 98 88 60 99 87 87 73 87 100
100 100 100 100 100 100 100 100 100 100 100 100 100 100 100 100 100 100 100 100 97 94 100 98 86 81 99 98 90 99 100 100
100 100 100 100 100 100 100 100 100 100 100 100 100 100 100 100 100 100 100 100 98 100 100 100 99 49 78 98 96 96 100 100
100 100 100 100 100 100 100 100 100 100 100 100 100 100 100 100 100 100 100 95 100 89 99 100 78 68 100 90 99 100 100 100
100 100 100 100 100 100 100 100 100 100 100 100 100 100 100 100 100 100 100 100 100 95 94 90 91 100 100 100 100 100 100 100
100 100 100 100 100 100 100 100 100 100 100 100 100 100 100 100 100 100 99 99 100 100 100 100 100 100 100 100 100 100 100 100
100 100 100 100 100 100 100 100 100 100 100 100 100 100 100 100 100 100 100 100 100 100 100 100 100 100 100 100 100 100 100 100
100 100 100 100 100 100 100 100 100 100 100 100 100 100 100 100 100 100 100 100 100 100 100 100 100 100 100 100 100 100 100 100
100 100 100 100 100 100 100 100 100 100 100 100 100 100 100 100 100 100 100 100 100 100 100 100 100 100 100 100 100 100 100 84
100 100 100 100 100 100 100 100 100 100 100 100 100 100 100 100 100 100 100 100 100 100 100 100 100 100 100 100 100 100 63 100
100 100 100 100 100 100 100 100 100 100 100 100 100 100 100 100 100 100 100 100 100 100 100 100 100 100 100 73 78 100 100 100
100 100 100 100 100 100 100 100 100 100 100 100 100 100 100 100 100 100 100 100 100 100 100 99 100 79 89 83 100 100 100 100

GFSFLT2_prec_cloud_096.txt.gz
Cloud_Cover
100 100 100 100 100 100 100 100 94 65 43 82 100 100 100 100 100 100 100 42 23 97 100 66 100 67 67 56 90 26 19 35
100 100 100 100 100 100 100 100 100 24 6 100 100 100 100 100 100 99 100 87 100 100 100 100 100 98 99 100 100 31 5 12
100 100 100 100 100 100 100 100 100 97 94 99 100 100 100 100 100 96 100 100 100 100 100 100 100 100 100 100 84 67 88 74
100 100 100 100 100 100 97 100 100 86 100 100 100 100 100 100 100 100 100 100 100 100 100 72 97 94 99 26 78 97 97 64
100 100 100 100 63 100 97 93 100 99 99 100 100 100 100 100 100 100 100 100 100 100 85 7 10 96 98 78 100 100 97 100
100 100 100 100 100 100 100 100 100 100 100 100 100 100 100 100 100 100 100 100 98 61 31 48 93 100 100 100 100 82 100 56
100 100 100 100 100 100 100 100 100 100 100 100 100 100 100 100 100 97 100 34 92 36 100 100 100 100 100 100 100 58 61 70
100 100 100 100 100 100 96 100 100 100 100 100 100 100 100 100 100 100 100 86 100 53 44 100 100 100 100 100 59 75 78 98
100 100 100 100 100 100 100 100 100 100 100 100 100 100 100 100 100 99 98 87 81 100 100 96 100 100 92 89 90 39 73 5
100 100 100 100 100 100 100 100 100 100 100 100 100 100 100 100 100 100 98 90 100 72 100 91 81 79 99 74 87 58 66 93
100 100 100 100 100 100 100 100 100 100 100 100 100 100 100 100 100 96 86 100 100 100 100 86 78 92 75 99 18 81 99 84
100 100 100 100 100 100 100 100 100 100 100 100 100 100 100 100 96 100 100 100 100 100 90 78 92 81 87 75 67 91 100 100
100 100 100 100 100 100 100 100 100 100 100 100 100 100 100 100 100 100 100 100 100 100 97 84 71 92 97 96 88 100 100 100
100 100 100 100 100 100 100 100 100 100 100 100 100 100 100 100 100 100 100 75 100 100 100 100 100 99 100 97 100 100 100 100
100 100 100 100 100 100 100 100 100 100 100 100 100 100 100 100 100 100 100 100 98 100 100 93 93 100 100 100 100 100 100 100
100 100 100 100 100 100 100 100 100 100 100 100 100 100 100 100 100 100 100 100 100 100 100 99 100 100 100 100 100 100 100 100
93 100 100 100 100 100 100 100 100 100 100 100 100 100 100 100 100 100 100 100 100 100 100 100 100 100 100 100 100 100 100 100
100 100 100 100 100 100 100 100 100 100 100 100 100 100 100 100 100 100 100 100 100 100 100 100 100 100 100 100 100 100 100 100
100 100 100 100 100 100 100 100 100 100 100 100 100 100 100 100 100 100 100 100 100 100 100 100 100 100 100 100 100 100 100 100
87 83 100 100 100 100 100 100 100 100 100 100 100 100 100 100 100 100 100 100 100 100 100 100 100 100 100 100 100 100 100 100

GFSFLT2_prec_cloud_099.txt.gz
Cloud_Cover
100 43 24 26 100 100 100 100 100 98 85 100 100 87 100 100 100 100 100 100 100 100 100 100 95 37 100 25 32 47 54 47
100 57 22 27 100 100 100 100 100 100 100 100 96 100 91 100 100 98 98 100 100 100 100 100 100 100 100 79 96 53 59 40
100 87 32 96 100 100 100 100 100 100 100 99 96 51 100 100 84 100 100 100 100 92 78 100 100 83 100 100 65 97 55 51
100 100 100 100 100 100 100 100 100 100 100 100 83 42 100 100 100 100 100 100 100 100 100 100 100 100 100 100 100 100 96 100
100 100 100 100 100 100 100 100 100 100 100 100 44 53 100 100 100 100 100 100 100 100 100 100 100 100 100 100 99 94 17 100
100 100 100 100 100 100 100 100 100 100 100 100 100 100 100 100 100 100 100 100 100 100 100 100 100 100 98 39 56 99 89 100
100 100 100 100 100 100 100 100 100 100 100 100 100 100 100 100 100 100 100 100 100 100 100 100 100 87 99 100 100 35 100 100
100 100 100 100 80 100 42 97 100 100 100 100 100 100 100 100 100 100 100 100 100 100 100 100 96 100 93 100 98 100 100 100
100 100 100 97 94 91 98 100 100 100 100 100 100 100 100 100 100 100 100 100 100 100 76 86 99 100 74 100 100 46 100 96
100 100 100 100 100 100 100 100 100 100 100 100 100 100 100 100 100 100 100 100 100 100 91 100 100 100 88 100 100 100 100 100
100 100 100 100 100 100 100 100 100 100 100 100 100 100 100 100 100 97 100 100 100 99 100 99 97 100 98 97 100 100 100 70
100 100 100 100 100 100 100 100 100 100 100 100 100 100 100 100 100 100 100 100 100 100 100 100 100 98 89 94 75 36 5 86
100 100 100 100 100 91 100 100 100 100 100 100 100 100 100 100 100 100 100 100 100 100 100 100 100 98 100 96 50 100 89 77
84 100 100 100 100 100 100 100 100 100 100 100 100 100 100 100 100 100 100 100 100 100 100 100 75 100 87 100 78 90 94 100
100 100 100 100 100 100 100 100 100 100 100 100 100 100 100 100 100 100 100 100 100 100 100 98 100 96 100 100 94 100 100 100
100 100 100 100 100 100 100 100 100 100 100 100 100 100 100 100 100 100 100 100 100 100 100 100 100 100 100 100 99 100 100 100
98 100 100 100 100 100 100 100 100 100 100 100 100 100 100 100 100 100 100 100 100 100 100 100 100 100 100 100 100 100 100 100
100 100 100 100 100 100 100 100 100 100 100 100 100 100 100 100 100 100 100 100 100 100 100 100 100 100 100 100 100 100 100 100
95 100 100 100 100 100 100 100 100 100 100 100 100 100 100 100 100 100 100 100 100 100 100 100 100 100 100 100 100 100 100 100
35 100 100 100 100 100 100 100 100 100 100 100 100 100 100 100 100 100 100 100 100 100 100 100 100 100 100 100 100 100 100 100

GFSFLT2_prec_cloud_102.txt.gz
Cloud_Cover
69 100 100 100 100 100 100 100 100 100 100 100 100 100 100 99 100 100 100 100 100 100 100 100 100 100 100 100 79 33 70 5
76 100 57 5 32 73 98 100 100 100 100 100 99 100 74 100 100 100 100 100 100 100 100 100 100 100 100 100 100 22 5 40
1 100 92 66 64 100 97 100 100 100 100 100 100 99 96 100 94 84 100 100 100 100 100 100 100 100 100 100 100 92 70 58
5 100 99 100 91 100 100 100 100 100 100 100 100 73 80 70 28 58 100 100 100 100 100 100 100 100 100 100 100 100 100 48
11 76 100 100 100 100 100 100 100 100 100 100 100 100 47 8 54 80 100 100 100 100 100 100 100 100 100 100 100 100 91 31
15 100 99 100 100 100 100 100 100 100 100 100 100 100 79 51 49 58 64 100 100 100 100 100 100 100 100 100 100 100 56 100
51 100 100 100 100 100 100 100 100 100 100 100 100 100 78 63 74 99 76 100 100 100 100 100 100 100 100 100 100 99 87 100
99 100 98 100 100 100 100 100 100 100 100 100 100 61 99 100 99 96 98 52 100 100 100 100 100 100 100 100 100 100 100 100
100 100 100 100 100 100 100 100 100 100 100 100 100 100 100 99 100 100 100 85 100 100 100 100 100 100 100 100 100 100 100 100
100 100 100 100 100 100 100 100 100 100 100 100 100 100 94 100 100 96 100 100 100 100 100 100 100 100 100 100 100 100 100 100
100 97 100 100 100 100 100 93 100 100 100 100 100 100 100 100 100 100 100 100 97 99 100 100 100 100 98 96 100 96 100 100
100 100 100 100 100 100 100 91 100 100 100 100 100 100 100 100 100 100 100 100 100 100 100 100 100 100 99 100 100 97 100 100
100 100 100 100 100 100 100 100 100 100 100 100 100 100 100 100 100 100 100 100 100 100 100 100 100 87 100 100 100 54 94 100
100 96 100 55 100 100 100 82 100 98 100 100 100 100 100 100 100 100 100 100 100 100 100 98 100 100 100 100 100 98 20 73
100 100 100 99 100 100 100 100 100 100 100 100 100 100 100 100 100 100 100 100 100 100 94 100 100 100 98 100 100 100 90 41
100 99 100 100 100 100 100 100 100 100 100 100 100 100 100 100 100 100 100 100 100 100 100 100 100 100 100 100 92 83 70 90
100 100 100 100 100 100 100 100 100 100 100 100 100 100 100 100 100 100 100 100 100 100 100 100 100 100 100 100 78 84 98 100
100 100 100 100 100 100 100 100 100 100 100 100 100 100 100 100 100 100 100 100 100 100 100 100 100 100 100 97 100 100 100 100
99 100 100 100 100 100 100 100 100 100 100 100 100 100 100 100 100 100 100 100 100 100 100 100 100 100 100 100 100 100 100 100
100 100 100 100 100 100 100 100 100 100 100 100 100 100 100 100 100 100 100 100 100 100 100 100 100 100 100 100 100 100 100 100

GFSFLT2_prec_cloud_105.txt.gz
Cloud_Cover
0 0 0 100 100 100 100 100 100 100 100 100 100 100 100 100 100 98 99 100 100 100 100 100 100 100 100 100 100 100 92 97
0 0 99 100 100 100 100 100 100 100 100 100 100 100 100 100 100 100 98 99 100 100 100 100 100 100 100 100 100 100 98 100
0 0 100 100 100 100 92 100 100 100 100 100 100 100 42 100 97 54 99 100 100 100 100 100 100 100 89 98 100 93 100 100
0 2 100 100 100 100 76 100 100 100 100 100 100 100 100 100 100 96 100 100 100 100 100 100 100 100 100 95 99 100 100 98
0 3 10 100 97 100 100 100 100 100 100 100 100 100 100 100 100 81 99 100 100 100 94 98 100 100 100 100 100 100 100 100
0 0 100 83 100 100 100 100 100 100 100 100 100 100 100 100 100 57 29 96 100 36 42 100 100 100 100 100 100 100 100 100
0 0 72 100 100 100 100 100 100 100 100 100 100 100 100 100 71 92 11 72 100 100 99 100 100 100 100 100 100 100 100 100
0 0 60 100 100 100 100 100 100 100 100 100 100 100 100 100 98 100 66 68 76 84 100 100 100 100 100 100 100 100 100 100
0 0 87 100 100 100 100 100 100 100 100 100 100 100 100 98 86 85 98 74 100 100 100 100 100 100 100 100 100 100 100 100
0 0 65 100 100 100 100 100 100 100 100 100 100 100 100 89 41 72 100 83 100 48 100 100 95 100 100 100 100 100 100 100
0 0 100 100 100 100 100 100 100 100 100 100 100 100 100 100 82 76 100 100 100 100 100 100 100 100 100 100 100 100 100 89
0 4 62 82 100 100 100 100 100 100 100 100 100 100 98 96 80 88 95 99 100 100 100 100 100 99 100 100 100 100 100 98
0 40 94 71 100 100 100 100 100 100 100 100 100 100 100 100 100 100 78 100 100 100 100 100 100 100 100 100 100 100 100 100
15 100 100 92 95 100 100 100 100 100 100 100 100 100 100 100 100 100 100 100 100 100 100 100 100 100 94 97 90 100 97 100
83 100 100 56 100 97 100 100 100 100 100 100 100 100 100 100 100 100 100 100 100 100 100 100 100 100 100 100 98 100 42 100
80 100 99 80 100 100 100 100 100 100 100 100 100 100 100 100 100 100 100 100 100 100 100 100 100 97 100 100 100 100 88 78
27 100 100 99 100 100 100 100 100 100 100 100 100 100 100 100 100 100 100 100 100 100 100 100 100 100 100 100 100 100 100 96
28 100 100 100 100 100 99 100 100 100 100 100 100 100 100 100 100 100 100 100 100 100 100 100 100 100 100 100 100 98 99 88
0 100 100 100 100 100 100 100 100 100 100 100 100 100 100 100 100 100 100 100 100 100 100 100 100 100 100 100 100 98 79 71
0 94 100 100 100 100 100 100 100 100 100 100 100 100 100 100 100 100 100 100 100 100 100 100 100 100 100 100 100 100 100 100

GFSFLT2_prec_cloud_108.txt.gz
Cloud_Cover
18 10 0 20 97 28 83 100 100 100 100 100 100 100 100 100 100 100 88 11 5 33 52 75 100 88 100 100 100 100 100 100
9 0 0 0 23 99 100 100 100 100 100 100 100 100 100 100 97 100 98 98 20 44 51 100 100 100 100 100 100 100 100 100
7 3 0 0 1 94 100 100 100 100 100 100 100 100 100 100 100 100 100 51 76 100 98 100 100 100 100 100 100 100 100 100
1 0 0 1 27 100 100 87 100 100 100 100 100 99 100 100 100 100 90 6 33 95 100 100 100 100 100 100 100 100 100 100
0 0 0 11 38 100 88 65 100 100 100 100 100 100 100 100 99 100 43 43 52 74 86 100 100 100 100 86 100 100 100 100
0 0 4 14 100 100 90 100 100 100 100 100 100 100 100 100 100 100 97 100 60 63 99 100 100 100 100 98 100 100 100 98
0 7 2 13 30 100 100 100 100 100 100 100 100 100 100 100 100 100 99 91 88 86 96 100 97 100 88 33 100 100 100 100
0 5 1 13 58 100 100 100 100 100 100 100 100 100 100 100 100 78 100 72 46 80 80 75 100 100 11 100 90 36 100 100
0 3 0 2 100 100 100 100 100 100 100 100 100 100 100 100 94 77 100 5 74 81 66 100 99 100 100 77 100 100 100 100
0 0 1 1 100 100 100 100 100 100 100 100 100 100 100 100 95 100 68 6 14 80 62 88 100 100 99 46 56 100 100 100
0 0 0 2 100 100 100 100 100 100 100 100 100 100 100 100 100 100 97 100 96 90 95 100 56 100 100 100 96 100 100 100
0 0 0 0 100 100 100 100 100 100 100 100 100 100 100 100 98 100 77 51 100 59 94 100 100 100 100 100 100 100 100 100
0 1 32 22 100 100 100 100 100 100 100 100 100 100 100 100 97 100 63 82 100 100 100 100 100 100 100 100 100 100 100 100
2 6 45 12 16 100 100 100 100 100 100 100 100 100 100 100 92 99 99 43 100 97 100 100 98 100 100 100 100 100 100 100
0 11 21 12 14 77 100 100 100 100 100 100 100 100 100 100 100 100 100 100 100 99 100 100 100 100 100 100 100 100 100 100
0 6 47 100 34 15 94 100 100 100 100 100 100 100 100 100 100 100 100 100 100 100 100 100 100 100 100 100 100 98 98 100
0 18 97 100 96 48 33 100 100 100 100 100 100 100 100 100 100 100 100 100 100 100 100 100 100 100 100 100 100 100 100 100
0 30 40 99 100 100 100 100 100 100 100 100 100 100 100 100 100 100 100 100 100 100 100 100 100 100 100 100 100 100 100 100
7 69 61 100 100 100 100 82 100 100 100 100 100 100 100 100 100 100 100 100 100 100 100 100 100 100 100 100 100 100 100 100
11 22 58 95 100 96 91 93 98 100 100 100 100 100 100 100 100 100 100 100 100 100 100 100 100 100 100 100 100 100 100 100

GFSFLT2_prec_cloud_111.txt.gz
Cloud_Cover
42 38 28 0 19 36 24 2 0 100 100 100 100 100 100 100 87 79 82 100 99 97 55 86 100 13 16 7 99 100 100 100
45 62 64 68 100 77 17 2 89 100 100 100 99 100 100 100 100 100 100 100 76 16 94 100 25 97 50 67 94 100 100 100
26 32 33 44 65 95 92 71 100 100 100 100 100 100 100 100 100 99 100 81 86 100 93 100 68 99 100 100 100 100 100 100
28 24 14 9 21 55 52 99 100 100 100 100 100 97 100 100 100 100 83 88 66 100 100 100 92 34 100 100 100 100 100 100
34 14 7 10 26 30 38 100 100 100 100 100 100 100 99 97 99 100 100 94 20 99 100 100 100 99 100 100 100 100 100 100
0 3 2 13 31 46 82 98 100 100 100 100 100 100 100 100 100 100 99 98 48 96 100 100 98 100 82 100 100 100 100 100
5 3 7 21 39 46 100 100 100 100 100 100 100 100 100 100 100 100 64 93 87 92 100 99 85 100 100 100 100 99 84 93
5 2 2 34 50 51 74 100 100 100 100 100 100 100 100 100 100 100 70 40 31 100 99 99 100 97 100 87 83 18 58 100
8 3 7 24 56 19 40 100 100 100 100 100 100 100 100 100 100 100 83 74 5 48 23 77 88 95 61 100 86 62 99 100
10 0 22 11 47 30 81 100 100 100 100 100 100 100 100 100 100 100 73 57 66 35 56 88 99 38 85 100 37 90 62 67
11 7 36 28 28 57 100 100 100 100 100 100 100 100 100 100 100 96 56 72 58 59 44 100 94 84 100 100 95 27 50 100
98 10 26 22 89 100 100 100 100 100 100 100 100 100 100 100 100 100 73 100 100 100 20 100 100 89 100 99 99 63 92 91
100 29 34 61 100 100 100 100 100 100 100 100 100 100 100 100 100 100 94 100 100 100 93 82 90 100 100 100 100 89 100 100
100 15 60 41 53 100 100 100 100 100 100 100 100 100 100 100 100 100 100 98 97 57 30 96 62 100 100 100 100 98 100 100
100 38 79 22 14 79 91 100 100 100 100 100 100 100 100 100 100 100 100 100 97 74 76 75 100 100 100 100 100 100 100 100
100 41 56 22 18 19 62 100 100 100 100 100 100 100 100 100 100 92 100 100 100 92 100 100 100 100 83 100 100 100 100 100
93 53 43 12 37 36 10 37 100 100 100 100 100 100 100 100 100 100 100 100 100 100 100 100 99 100 100 100 100 100 100 100
57 56 26 45 100 52 0 0 50 100 100 100 100 100 100 100 100 100 100 100 100 100 98 100 100 100 100 100 100 100 100 100
68 77 20 96 100 95 1 0 7 68 100 100 100 100 100 100 100 100 100 100 100 100 100 100 100 100 100 100 100 100 100 100
100 84 83 100 100 100 99 99 100 98 92 100 100 100 100 100 100 100 100 100 100 100 100 100 100 100 100 100 100 100 100 100

GFSFLT2_prec_cloud_114.txt.gz
Cloud_Cover
47 48 75 30 4 27 49 47 12 0 0 100 100 100 100 100 100 100 40 5 41 27 43 8 99 2 1 0 99 78 57 36
90 81 96 86 60 53 54 59 26 0 20 100 100 100 100 100 100 100 100 100 82 14 44 100 28 5 95 99 5 6 85 100
81 100 100 100 100 100 44 59 19 0 90 100 100 100 100 100 100 100 100 100 100 90 44 99 33 27 100 100 90 100 100 100
52 98 100 100 100 100 100 100 92 48 100 100 100 97 100 100 47 100 100 100 100 46 1 45 52 72 92 100 92 73 100 100
51 46 56 88 100 100 98 100 100 99 100 100 100 100 100 100 100 100 100 100 100 59 100 31 54 77 91 96 100 98 100 100
32 27 29 24 31 83 100 100 100 100 100 100 100 100 100 100 92 95 94 100 99 100 100 98 99 100 92 100 100 100 100 100
0 36 24 17 23 41 66 89 100 100 100 100 100 100 100 100 100 100 97 100 100 100 98 50 71 73 100 96 100 100 96 100
0 24 18 11 30 63 99 89 75 100 100 100 100 100 100 100 100 100 100 100 100 100 99 100 83 66 82 97 100 100 84 69
1 10 22 8 19 35 99 100 100 100 100 100 100 100 100 100 100 100 100 100 97 99 98 100 100 100 65 65 43 46 98 70
3 3 32 17 42 43 79 100 100 100 100 100 100 100 100 100 100 100 100 100 100 100 40 100 100 69 39 74 10 61 49 46
15 30 38 29 43 48 62 86 100 100 100 100 100 100 100 100 100 100 100 100 92 100 94 100 85 14 100 54 82 37 40 40
9 32 25 25 47 93 99 100 100 100 100 100 100 100 100 100 100 100 100 100 98 93 80 100 18 6 15 84 91 78 100 36
34 53 44 48 84 100 100 100 100 100 100 100 100 100 100 100 100 100 100 100 100 100 100 100 91 5 24 96 99 100 100 46
41 16 68 52 89 100 100 100 100 100 100 100 100 100 100 100 100 100 100 100 100 100 100 100 99 97 5 54 95 91 100 90
74 39 63 99 100 100 100 100 100 100 100 100 100 100 100 100 100 100 100 100 100 100 100 100 99 100 96 49 100 100 100 70
23 93 95 96 84 100 100 100 100 100 100 100 100 100 100 100 100 100 100 100 100 100 100 99 95 65 96 100 100 100 99 100
30 100 100 100 89 94 100 100 99 100 100 100 100 100 100 100 100 100 100 100 100 100 100 94 100 100 100 100 100 100 100 100
96 100 100 100 76 36 53 24 82 100 100 100 100 100 100 100 100 100 100 100 100 100 100 100 100 100 100 100 100 97 100 82
100 100 100 100 74 48 10 50 96 100 100 100 100 100 100 100 100 100 100 100 100 100 100 99 100 100 100 100 100 100 100 100
100 100 100 100 60 12 6 28 60 100 100 100 100 100 100 100 100 100 100 100 100 100 100 100 100 100 100 100 100 100 100 100

GFSFLT2_prec_cloud_117.txt.gz
Cloud_Cover
23 100 100 17 1 1 0 33 78 5 0 0 1 100 100 100 100 100 100 100 34 5 5 91 19 4 50 39 5 0 0 1
30 100 100 63 84 20 26 4 11 0 0 0 0 78 100 100 100 100 100 100 100 67 53 3 23 2 2 0 0 0 14 5
57 100 100 100 95 95 75 75 0 3 0 0 47 100 64 100 53 100 99 100 100 100 97 3 0 4 0 2 28 21 5 27
90 100 100 100 100 100 84 100 66 11 43 0 100 100 100 98 98 100 93 97 100 100 100 22 0 4 4 5 79 59 48 69
23 100 100 100 100 100 100 100 98 85 64 43 100 100 100 100 83 100 81 94 100 100 100 86 58 61 83 34 22 38 98 100
5 74 100 100 100 100 100 100 100 100 100 58 100 100 100 96 100 100 90 100 95 100 85 75 74 35 3 7 56 100 98 90
5 7 65 100 100 100 100 100 100 100 100 97 100 100 100 100 100 100 97 100 99 100 95 97 91 90 86 85 85 97 72 99
5 0 25 60 88 100 100 100 100 100 100 100 100 100 100 100 100 100 100 100 100 90 100 100 100 100 13 80 82 94 98 99
11 0 10 34 48 46 94 100 100 97 97 100 100 100 100 100 100 100 100 100 100 100 98 95 100 98 50 62 66 100 79 85
5 0 6 21 35 26 100 100 97 92 40 100 100 100 100 100 100 100 100 100 100 100 99 100 100 100 51 64 95 99 70 41
1 0 4 10 36 36 94 100 100 99 96 100 100 100 100 100 100 100 100 100 100 100 100 99 100 100 85 73 97 99 74 90
0 0 7 20 52 72 100 100 100 100 100 100 100 100 100 100 100 100 100 100 100 100 100 48 100 100 70 88 98 30 26 91
0 7 54 73 100 100 100 100 100 100 100 100 100 100 100 100 100 100 100 100 100 100 93 98 100 100 80 85 74 13 51 74
10 31 100 63 81 100 81 100 100 100 100 100 84 100 100 100 100 100 100 100 100 100 99 92 100 83 95 100 100 74 57 90
32 51 100 96 79 92 62 36 90 100 100 100 94 100 100 100 100 100 100 100 100 100 100 100 100 86 99 100 83 84 100 100
26 95 100 100 70 45 43 37 91 100 100 100 100 100 100 100 100 100 100 100 100 100 100 100 100 100 98 99 79 98 95 100
45 100 100 100 57 100 39 21 100 100 93 100 100 100 100 100 100 100 100 100 100 100 100 100 100 100 100 100 100 100 83 96
92 100 100 100 100 100 70 38 100 97 98 100 100 100 100 100 100 100 100 100 100 100 100 100 100 100 100 100 99 99 100 100
100 100 100 100 100 100 100 100 94 67 99 100 100 100 100 100 100 100 100 100 100 100 100 100 100 100 100 100 100 100 100 100
100 100 100 100 100 100 100 77 52 65 59 93 100 100 100 100 100 100 100 100 100 100 100 100 100 100 100 100 97 100 100 100

GFSFLT2_prec_cloud_120.txt.gz
Cloud_Cover
0 1 22 49 0 14 18 97 60 32 0 0 0 5 82 100 100 100 100 100 100 98 57 5 66 2 2 92 48 95 10 5
0 10 96 46 42 11 18 39 3 0 0 0 0 2 22 100 100 100 100 100 100 100 56 7 99 82 4 6 99 5 5 0
0 0 98 33 100 92 53 30 1 9 8 1 66 0 0 8 100 100 100 100 73 89 84 5 68 82 6 5 4 4 0 0
0 0 6 61 100 100 80 90 3 6 14 16 0 0 43 31 77 100 100 100 100 96 99 14 71 85 36 70 15 34 0 5
0 5 4 68 99 91 100 100 23 42 90 48 21 41 51 100 100 100 100 100 79 100 100 96 95 34 2 2 91 9 5 14
5 11 22 36 100 100 99 33 64 28 44 58 4 17 100 100 100 99 100 63 87 100 100 100 95 5 18 75 46 6 5 66
5 5 77 82 100 100 100 27 26 44 43 48 20 45 100 100 100 72 100 100 100 100 100 99 71 81 100 95 36 25 58 100
5 5 5 56 100 100 100 100 47 58 83 68 67 59 96 100 100 98 100 100 100 100 100 98 50 65 100 52 48 54 100 94
5 5 5 5 60 100 100 100 99 82 100 99 99 65 82 100 100 100 100 100 100 100 100 100 100 99 99 99 100 63 100 75
5 6 5 5 0 28 98 100 100 100 92 97 89 75 92 98 100 100 100 100 100 100 97 97 100 100 100 98 30 100 87 72
5 53 39 5 0 4 96 50 100 100 69 90 100 98 100 100 100 100 100 100 100 100 100 100 100 100 100 97 61 94 100 100
5 76 78 0 0 73 100 94 100 100 54 52 96 100 100 100 100 100 100 100 100 100 100 100 100 100 100 100 95 100 100 100
51 100 10 0 3 99 100 100 100 100 100 78 45 69 100 100 100 100 100 100 100 100 100 100 100 94 100 100 100 97 90 100
5 76 5 0 74 100 100 100 100 100 95 89 87 100 95 93 100 100 100 100 100 100 100 100 100 100 100 73 100 99 100 99
5 5 3 14 16 100 100 100 100 100 100 75 65 50 99 100 100 100 100 100 100 100 100 100 100 100 100 100 100 98 99 100
51 20 0 99 82 100 100 47 53 30 57 91 100 100 84 98 100 100 100 100 100 100 100 100 97 90 100 100 100 95 82 100
56 51 40 100 100 100 100 70 32 36 51 92 100 100 72 100 100 100 100 100 100 100 100 100 100 100 100 100 100 97 100 99
36 78 100 100 100 100 100 98 59 59 99 92 98 100 100 100 100 100 100 100 100 100 100 100 100 100 100 100 100 100 100 100
100 47 100 100 100 100 100 100 94 78 89 93 91 100 100 100 100 100 100 100 100 100 100 100 100 100 100 100 100 100 100 100
100 8 99 100 100 100 100 73 100 68 92 100 89 100 100 100 100 100 100 100 100 100 100 100 100 100 100 100 100 100 100 100

GFSFLT2_prec_cloud_123.txt.gz
Cloud_Cover
0 0 0 4 0 0 0 63 100 100 28 0 0 0 0 0 100 100 100 100 100 100 100 100 72 5 3 5 94 12 13 100
5 0 0 0 3 11 0 33 98 100 14 0 0 3 0 0 68 100 100 100 100 99 100 100 15 5 5 0 64 50 36 70
100 3 0 0 1 6 53 19 1 56 31 5 74 10 8 2 2 79 100 100 100 100 100 98 31 5 5 2 74 74 97 70
100 95 7 3 7 4 10 17 0 0 10 16 37 15 48 46 6 3 100 100 91 100 100 99 100 7 28 2 1 99 42 81
100 100 96 6 37 94 17 0 7 9 16 16 17 2 10 6 19 84 8 100 100 100 100 97 100 89 38 5 16 82 40 85
100 100 100 21 10 100 35 1 0 3 16 2 10 0 17 46 13 100 99 6 100 100 100 100 100 100 68 12 100 54 3 77
100 100 100 8 20 84 99 0 19 0 3 4 2 22 13 13 67 100 100 94 100 100 100 100 100 86 89 73 94 81 9 43
100 100 66 15 10 93 99 0 2 0 1 1 20 23 31 34 49 100 100 100 100 100 100 100 100 90 89 78 70 45 5 27
99 100 6 13 100 100 100 17 0 0 0 1 34 0 26 65 17 100 100 100 100 100 100 100 100 91 93 97 99 24 27 23
95 94 10 96 78 62 100 100 73 3 26 59 61 40 46 37 36 100 93 100 100 100 100 100 100 100 87 99 86 78 39 98
100 100 100 19 22 5 11 76 100 100 27 65 100 78 46 70 30 57 87 100 100 100 100 100 100 100 88 100 100 81 100 44
100 100 100 100 100 16 6 88 53 99 99 28 77 70 100 94 100 85 82 100 100 100 100 100 100 100 100 99 100 99 84 100
100 100 100 100 100 68 0 40 93 98 100 44 90 95 58 69 100 100 100 100 100 100 100 100 100 100 100 98 100 100 95 100
100 83 100 100 100 72 2 63 92 100 100 97 82 100 100 40 100 100 100 100 100 100 100 100 100 100 100 93 100 100 100 100
100 100 100 100 96 93 66 100 95 100 100 100 97 100 95 65 91 100 100 100 100 100 100 100 100 100 100 100 100 98 100 99
26 100 100 100 60 89 24 100 100 100 100 100 100 90 86 100 74 71 100 100 100 100 100 100 100 100 100 100 100 100 72 100
37 100 100 100 97 67 75 100 100 97 100 46 96 40 99 100 44 99 100 100 100 100 100 100 100 100 100 100 100 100 93 99
100 100 10 97 100 37 98 100 71 100 100 100 83 41 91 100 89 81 100 100 100 100 100 100 100 100 100 100 100 93 100 100
100 86 100 97 100 100 100 100 100 100 100 59 40 100 100 100 96 100 100 100 100 100 100 100 100 100 100 100 100 98 100 100
92 81 59 93 100 98 100 100 100 100 100 100 100 69 96 100 100 100 100 100 100 100 100 100 100 100 100 100 100 100 100 100

GFSFLT2_prec_cloud_126.txt.gz
Cloud_Cover
0 4 2 32 5 5 1 0 76 0 46 100 0 0 0 0 0 65 100 100 100 100 100 100 100 100 74 5 32 11 5 24
0 13 97 100 9 100 5 0 79 92 100 25 0 0 0 0 0 36 100 100 100 100 100 100 100 100 100 5 5 5 5 11
0 19 39 46 100 100 58 1 51 100 100 69 75 0 0 0 0 0 100 100 100 100 100 100 100 100 100 27 2 6 92 31
0 5 2 77 100 100 9 9 8 79 92 98 48 8 0 0 1 0 68 84 100 100 100 100 100 100 91 5 4 0 73 60
27 5 1 43 100 80 44 94 5 0 0 9 2 0 13 0 2 5 5 5 100 100 100 100 100 100 90 5 4 5 46 21
30 7 8 13 100 100 100 32 0 0 0 0 0 0 0 0 1 100 24 80 100 100 100 100 100 100 53 100 30 100 5 14
1 100 78 68 100 100 70 5 1 2 0 0 0 0 0 0 22 82 100 90 77 93 97 100 100 100 93 10 16 39 100 9
0 88 100 100 100 100 97 26 5 2 0 0 0 0 0 0 0 12 40 100 100 100 100 100 100 100 100 34 64 96 92 2
62 99 100 100 100 73 100 100 100 4 0 0 0 0 0 0 0 0 5 100 100 99 100 100 100 100 100 99 43 100 100 14
100 100 100 100 30 75 100 100 100 67 14 0 0 0 0 0 1 0 7 100 100 100 100 100 100 100 100 100 99 100 30 7
29 25 4 19 73 86 100 100 100 53 43 36 0 0 0 0 0 3 3 90 100 100 100 100 100 100 100 100 98 100 61 33
40 100 70 97 100 100 93 100 100 52 5 76 5 0 36 10 11 30 41 74 100 100 100 100 100 100 100 100 96 100 100 76
5 5 39 16 29 74 20 92 100 100 7 87 100 47 1 14 67 100 100 100 86 100 100 100 100 100 100 100 100 100 68 100
7 100 99 58 11 51 100 100 100 83 23 60 100 100 46 82 99 100 100 100 100 99 100 100 100 100 100 100 100 95 100 100
22 42 45 5 30 77 89 100 100 100 100 100 68 100 100 100 91 82 100 100 100 100 98 100 100 100 100 100 100 86 97 100
99 84 19 94 100 14 87 94 100 93 99 100 100 100 100 100 100 93 99 100 100 100 100 100 100 100 100 100 100 95 45 89
100 65 42 25 100 100 83 100 41 100 95 100 100 100 100 100 100 92 95 100 100 100 100 95 100 100 100 100 100 93 100 100
100 100 100 100 100 100 100 100 96 84 100 100 100 100 100 100 100 49 100 100 100 100 100 100 100 100 100 100 100 95 100 100
100 99 100 100 100 100 82 99 100 91 30 100 100 100 100 98 81 97 97 100 100 100 100 100 100 100 100 100 100 100 100 100
100 100 100 100 100 100 100 96 100 100 100 100 95 90 73 100 98 100 100 99 100 100 100 100 100 100 100 100 100 100 100 100

GFSFLT2_prec_cloud_129.txt.gz
Cloud_Cover
1 3 5 0 0 25 100 100 7 98 30 7 0 0 0 0 0 0 0 0 100 100 100 100 100 100 75 13 28 100 38 94
1 11 20 45 26 4 2 5 88 13 66 78 0 0 0 0 0 0 0 0 4 100 100 100 100 100 100 100 79 100 88 14
0 3 14 39 39 14 1 64 31 17 94 100 19 1 0 0 0 0 0 0 0 100 100 100 100 100 100 97 87 80 100 51
0 0 2 100 84 44 26 71 40 76 100 100 38 0 0 0 0 0 0 4 1 37 100 100 100 100 100 100 87 93 98 3
100 16 0 1 5 55 58 47 98 100 100 100 100 38 0 0 0 0 3 8 90 95 100 100 100 100 100 100 49 100 81 10
100 99 12 0 4 58 95 100 63 100 100 35 76 44 14 0 0 0 12 60 100 100 82 100 100 100 100 100 100 100 93 23
100 100 100 9 18 25 27 66 89 100 100 50 43 32 7 0 0 3 19 44 100 96 78 100 100 100 100 100 100 100 17 35
59 100 100 86 100 83 57 85 100 100 100 7 28 62 1 0 5 28 3 1 75 97 100 100 92 100 100 100 100 100 100 100
76 3 79 100 100 53 98 100 98 100 100 64 33 81 0 0 0 0 0 1 71 100 100 100 100 100 100 100 100 100 27 62
83 18 100 100 100 97 8 41 29 26 100 100 100 5 0 7 0 0 0 1 36 100 100 100 100 100 100 100 100 100 90 99
100 100 88 83 97 98 76 94 100 94 98 100 84 4 1 0 1 12 37 14 27 84 100 100 100 100 100 100 100 100 100 79
100 100 100 8 6 81 100 81 100 100 96 76 100 14 1 10 3 55 61 46 56 80 100 100 100 100 100 100 100 100 100 66
100 98 42 5 5 39 100 72 8 97 55 83 92 96 2 5 0 51 100 57 44 39 96 100 100 100 100 100 100 100 100 100
100 100 28 4 4 28 99 100 97 100 96 22 100 63 94 23 26 84 81 86 98 100 83 100 100 100 100 100 100 100 100 100
100 100 100 100 34 4 3 68 63 50 100 100 69 100 23 100 52 18 50 100 100 100 100 91 100 100 100 100 100 100 100 100
100 100 100 100 100 100 60 21 38 55 99 100 100 100 26 89 100 100 99 100 100 100 100 100 100 100 100 100 100 100 80 100
100 100 100 100 100 100 100 100 36 23 98 100 100 100 100 55 100 100 100 100 100 100 88 100 66 100 90 100 100 100 100 100
100 100 100 100 100 100 100 100 55 90 100 100 100 100 100 100 100 100 100 100 100 100 100 100 90 98 100 100 100 100 100 100
100 100 100 100 100 100 100 100 100 100 100 100 100 100 100 100 100 100 100 100 100 100 99 63 96 100 100 100 100 100 100 100
100 100 100 100 100 100 100 100 100 100 100 100 100 100 100 100 100 100 100 98 79 100 100 100 100 100 100 100 100 100 100 100